Time,TemperatureF,DewpointF,PressureIn,WindDirection,WindDirectionDegrees,WindSpeedMPH,WindSpeedGustMPH,Humidity,HourlyPrecipIn,Conditions,Clouds,dailyrainin,SoftwareType,DateUTC
2013-09-26 00:00:00,62.1,44.2,29.88,North,4,0.0,0.0,52,0.00,,---,0.00,VWS V14.01,2013-09-26 04:00:00,
2013-09-26 00:01:00,61.9,44.6,29.88,North,4,0.0,0.0,53,0.00,,---,0.00,VWS V14.01,2013-09-26 04:01:00,
2013-09-26 00:06:00,61.7,44.4,29.88,NW,315,0.0,0.0,53,0.00,,---,0.00,VWS V14.01,2013-09-26 04:06:00,
2013-09-26 00:11:00,61.7,44.4,29.88,NW,315,0.0,0.0,53,0.00,,---,0.00,VWS V14.01,2013-09-26 04:11:00,
2013-09-26 00:16:00,61.7,44.4,29.88,NW,310,0.0,0.0,53,0.00,,---,0.00,VWS V14.01,2013-09-26 04:16:00,
2013-09-26 00:17:00,61.7,44.4,29.88,NW,310,0.0,0.0,53,0.00,,---,0.00,VWS V14.01,2013-09-26 04:17:00,
2013-09-26 00:21:00,61.2,44.4,29.88,NW,310,0.0,0.0,54,0.00,,---,0.00,VWS V14.01,2013-09-26 04:21:00,
2013-09-26 00:22:00,61.2,44.4,29.88,NW,310,0.0,0.0,54,0.00,,---,0.00,VWS V14.01,2013-09-26 04:22:00,
2013-09-26 00:26:00,61.0,44.2,29.88,NW,310,0.0,0.0,54,0.00,,---,0.00,VWS V14.01,2013-09-26 04:26:00,
2013-09-26 00:27:00,61.0,44.2,29.88,NW,310,0.0,0.0,54,0.00,,---,0.00,VWS V14.01,2013-09-26 04:27:00,
2013-09-26 00:31:00,60.8,44.1,29.88,NW,310,0.0,0.0,54,0.00,,---,0.00,VWS V14.01,2013-09-26 04:31:00,
2013-09-26 00:32:00,60.8,44.1,29.88,NW,310,0.0,0.0,54,0.00,,---,0.00,VWS V14.01,2013-09-26 04:32:00,
2013-09-26 00:36:00,60.6,44.4,29.88,NW,310,0.0,0.0,55,0.00,,---,0.00,VWS V14.01,2013-09-26 04:36:00,
2013-09-26 00:37:00,60.6,44.4,29.88,NW,310,0.0,0.0,55,0.00,,---,0.00,VWS V14.01,2013-09-26 04:37:00,
2013-09-26 00:41:00,60.6,44.4,29.85,NW,310,0.0,0.0,55,0.00,,---,0.00,VWS V14.01,2013-09-26 04:41:00,
2013-09-26 00:42:00,60.4,44.7,29.85,NW,310,0.0,0.0,56,0.00,,---,0.00,VWS V14.01,2013-09-26 04:42:00,
2013-09-26 00:43:00,60.4,44.7,29.85,NW,310,0.0,0.0,56,0.00,,---,0.00,VWS V14.01,2013-09-26 04:43:00,
2013-09-26 00:46:00,60.3,44.5,29.85,NW,310,0.0,0.0,56,0.00,,---,0.00,VWS V14.01,2013-09-26 04:46:00,
2013-09-26 00:47:00,60.3,44.5,29.85,NW,310,0.0,0.0,56,0.00,,---,0.00,VWS V14.01,2013-09-26 04:47:00,
2013-09-26 00:48:00,60.3,44.5,29.85,NW,310,0.0,0.0,56,0.00,,---,0.00,VWS V14.01,2013-09-26 04:48:00,
2013-09-26 00:51:00,60.1,44.8,29.85,NW,310,0.0,0.0,57,0.00,,---,0.00,VWS V14.01,2013-09-26 04:51:00,
2013-09-26 00:52:00,60.1,44.8,29.85,NW,310,0.0,0.0,57,0.00,,---,0.00,VWS V14.01,2013-09-26 04:52:00,
2013-09-26 00:53:00,60.1,44.8,29.85,NW,310,0.0,0.0,57,0.00,,---,0.00,VWS V14.01,2013-09-26 04:53:00,
2013-09-26 00:56:00,60.1,45.3,29.85,NW,310,0.0,0.0,58,0.00,,---,0.00,VWS V14.01,2013-09-26 04:56:00,
2013-09-26 00:57:00,60.1,45.3,29.85,NW,310,0.0,0.0,58,0.00,,---,0.00,VWS V14.01,2013-09-26 04:57:00,
2013-09-26 00:58:00,60.1,45.3,29.85,NW,310,0.0,0.0,58,0.00,,---,0.00,VWS V14.01,2013-09-26 04:58:00,
2013-09-26 01:01:00,60.1,45.3,29.85,NNW,348,0.0,0.0,58,0.00,,---,0.00,VWS V14.01,2013-09-26 05:01:00,
2013-09-26 01:02:00,60.1,45.3,29.85,NNW,348,0.0,0.0,58,0.00,,---,0.00,VWS V14.01,2013-09-26 05:02:00,
2013-09-26 01:03:00,60.1,45.7,29.85,NNW,348,0.0,0.0,59,0.00,,---,0.00,VWS V14.01,2013-09-26 05:03:00,
2013-09-26 01:06:00,60.1,45.7,29.85,NNW,348,0.0,0.0,59,0.00,,---,0.00,VWS V14.01,2013-09-26 05:06:00,
2013-09-26 01:07:00,59.9,45.5,29.85,NNW,348,0.0,0.0,59,0.00,,---,0.00,VWS V14.01,2013-09-26 05:07:00,
2013-09-26 01:08:00,59.9,45.5,29.85,NNW,348,0.0,0.0,59,0.00,,---,0.00,VWS V14.01,2013-09-26 05:08:00,
2013-09-26 01:11:00,59.9,45.5,29.85,NNW,348,0.0,0.0,59,0.00,,---,0.00,VWS V14.01,2013-09-26 05:11:00,
2013-09-26 01:12:00,59.9,45.5,29.85,NNW,348,0.0,0.0,59,0.00,,---,0.00,VWS V14.01,2013-09-26 05:12:00,
2013-09-26 01:13:00,59.9,45.5,29.85,NNW,348,0.0,0.0,59,0.00,,---,0.00,VWS V14.01,2013-09-26 05:13:00,
2013-09-26 01:16:00,59.7,45.4,29.85,NNW,348,0.0,0.0,59,0.00,,---,0.00,VWS V14.01,2013-09-26 05:16:00,
2013-09-26 01:17:00,59.7,45.4,29.85,NNW,348,0.0,0.0,59,0.00,,---,0.00,VWS V14.01,2013-09-26 05:17:00,
2013-09-26 01:18:00,59.7,45.4,29.85,NNW,348,0.0,0.0,59,0.00,,---,0.00,VWS V14.01,2013-09-26 05:18:00,
2013-09-26 01:21:00,59.7,45.8,29.85,NNW,348,0.0,0.0,60,0.00,,---,0.00,VWS V14.01,2013-09-26 05:21:00,
2013-09-26 01:22:00,59.7,45.8,29.85,NNW,348,0.0,0.0,60,0.00,,---,0.00,VWS V14.01,2013-09-26 05:22:00,
2013-09-26 01:23:00,59.7,45.8,29.85,NNW,348,0.0,0.0,60,0.00,,---,0.00,VWS V14.01,2013-09-26 05:23:00,
2013-09-26 01:26:00,59.7,45.8,29.85,North,350,0.0,0.0,60,0.00,,---,0.00,VWS V14.01,2013-09-26 05:26:00,
2013-09-26 01:27:00,59.7,45.8,29.85,North,349,0.0,0.0,60,0.00,,---,0.00,VWS V14.01,2013-09-26 05:27:00,
2013-09-26 01:28:00,59.7,45.8,29.85,North,349,0.0,0.0,60,0.00,,---,0.00,VWS V14.01,2013-09-26 05:28:00,
2013-09-26 01:32:00,59.7,45.8,29.85,NW,315,0.0,0.0,60,0.00,,---,0.00,VWS V14.01,2013-09-26 05:32:00,
2013-09-26 01:33:00,59.7,46.3,29.85,NW,312,3.1,3.1,61,0.00,,---,0.00,VWS V14.01,2013-09-26 05:33:00,
2013-09-26 01:37:00,59.9,46.4,29.85,NW,312,0.0,0.0,61,0.00,,---,0.00,VWS V14.01,2013-09-26 05:37:00,
2013-09-26 01:39:00,59.9,46.4,29.85,NW,312,0.0,0.0,61,0.00,,---,0.00,VWS V14.01,2013-09-26 05:39:00,
2013-09-26 01:42:00,59.9,46.9,29.85,NW,312,0.0,0.0,62,0.00,,---,0.00,VWS V14.01,2013-09-26 05:42:00,
2013-09-26 01:44:00,59.9,46.9,29.85,NW,312,0.0,0.0,62,0.00,,---,0.00,VWS V14.01,2013-09-26 05:44:00,
2013-09-26 01:47:00,60.1,47.0,29.85,NNW,337,0.0,3.1,62,0.00,,---,0.00,VWS V14.01,2013-09-26 05:47:00,
2013-09-26 01:49:00,60.1,47.5,29.85,NNW,334,0.0,2.7,63,0.00,,---,0.00,VWS V14.01,2013-09-26 05:49:00,
2013-09-26 01:52:00,60.3,47.6,29.85,NW,321,0.0,0.0,63,0.00,,---,0.00,VWS V14.01,2013-09-26 05:52:00,
2013-09-26 01:54:00,60.3,47.6,29.85,North,353,0.0,0.0,63,0.00,,---,0.00,VWS V14.01,2013-09-26 05:54:00,
2013-09-26 01:57:00,60.4,48.2,29.85,North,353,0.0,0.0,64,0.00,,---,0.00,VWS V14.01,2013-09-26 05:57:00,
2013-09-26 01:59:00,60.6,48.4,29.85,North,353,0.0,0.0,64,0.00,,---,0.00,VWS V14.01,2013-09-26 05:59:00,
2013-09-26 02:02:00,60.6,48.4,29.85,North,353,0.0,0.0,64,0.00,,---,0.00,VWS V14.01,2013-09-26 06:02:00,
2013-09-26 02:04:00,60.6,48.4,29.85,WNW,300,0.0,0.0,64,0.00,,---,0.00,VWS V14.01,2013-09-26 06:04:00,
2013-09-26 02:05:00,60.6,48.4,29.85,NW,304,0.0,0.0,64,0.00,,---,0.00,VWS V14.01,2013-09-26 06:05:00,
2013-09-26 02:07:00,60.6,48.4,29.85,NW,308,0.0,0.0,64,0.00,,---,0.00,VWS V14.01,2013-09-26 06:07:00,
2013-09-26 02:08:00,60.6,48.4,29.85,NW,308,0.0,0.0,64,0.00,,---,0.00,VWS V14.01,2013-09-26 06:08:00,
2013-09-26 02:10:00,60.6,48.4,29.85,NW,308,0.0,0.0,64,0.00,,---,0.00,VWS V14.01,2013-09-26 06:10:00,
2013-09-26 02:12:00,60.8,49.0,29.85,NNW,333,4.0,4.0,65,0.00,,---,0.00,VWS V14.01,2013-09-26 06:12:00,
2013-09-26 02:13:00,60.8,49.0,29.85,NW,318,3.1,3.1,65,0.00,,---,0.00,VWS V14.01,2013-09-26 06:13:00,
2013-09-26 02:15:00,61.0,49.2,29.85,North,353,5.4,5.4,65,0.00,,---,0.00,VWS V14.01,2013-09-26 06:15:00,
2013-09-26 02:17:00,61.0,49.2,29.85,North,2,4.9,5.4,65,0.00,,---,0.00,VWS V14.01,2013-09-26 06:17:00,
2013-09-26 02:18:00,61.0,49.2,29.85,NNW,343,0.0,0.0,65,0.00,,---,0.00,VWS V14.01,2013-09-26 06:18:00,
2013-09-26 02:20:00,61.0,49.2,29.85,North,6,2.7,2.7,65,0.00,,---,0.00,VWS V14.01,2013-09-26 06:20:00,
2013-09-26 02:22:00,61.2,50.1,29.85,NNW,344,2.7,2.7,67,0.00,,---,0.00,VWS V14.01,2013-09-26 06:22:00,
2013-09-26 02:23:00,61.3,50.3,29.85,NW,326,2.2,2.2,67,0.00,,---,0.00,VWS V14.01,2013-09-26 06:23:00,
2013-09-26 02:25:00,61.3,50.3,29.85,NNW,348,0.0,0.0,67,0.00,,---,0.00,VWS V14.01,2013-09-26 06:25:00,
2013-09-26 02:27:00,61.3,50.3,29.85,North,353,2.7,2.7,67,0.00,,---,0.00,VWS V14.01,2013-09-26 06:27:00,
2013-09-26 02:28:00,61.5,50.9,29.85,NNW,342,0.0,0.0,68,0.00,,---,0.00,VWS V14.01,2013-09-26 06:28:00,
2013-09-26 02:30:00,61.5,50.9,29.85,NNW,340,3.6,3.6,68,0.00,,---,0.00,VWS V14.01,2013-09-26 06:30:00,
2013-09-26 02:32:00,61.5,50.9,29.85,North,353,2.7,4.0,68,0.00,,---,0.00,VWS V14.01,2013-09-26 06:32:00,
2013-09-26 02:33:00,61.5,50.9,29.85,NW,322,4.0,4.0,68,0.00,,---,0.00,VWS V14.01,2013-09-26 06:33:00,
2013-09-26 02:35:00,61.9,51.6,29.85,North,353,3.6,3.6,69,0.00,,---,0.00,VWS V14.01,2013-09-26 06:35:00,
2013-09-26 02:37:00,62.1,51.8,29.85,NW,304,3.1,4.0,69,0.00,,---,0.00,VWS V14.01,2013-09-26 06:37:00,
2013-09-26 02:38:00,62.1,51.8,29.85,NW,304,3.1,3.1,69,0.00,,---,0.00,VWS V14.01,2013-09-26 06:38:00,
2013-09-26 02:40:00,62.1,51.8,29.85,NW,315,4.0,4.0,69,0.00,,---,0.00,VWS V14.01,2013-09-26 06:40:00,
2013-09-26 02:42:00,62.1,51.8,29.85,WNW,286,2.7,2.7,69,0.00,,---,0.00,VWS V14.01,2013-09-26 06:42:00,
2013-09-26 02:43:00,62.1,51.8,29.85,WNW,286,0.0,2.7,69,0.00,,---,0.00,VWS V14.01,2013-09-26 06:43:00,
2013-09-26 02:45:00,62.4,52.5,29.85,NNW,339,3.6,3.6,70,0.00,,---,0.00,VWS V14.01,2013-09-26 06:45:00,
2013-09-26 02:47:00,62.4,52.5,29.85,NW,312,3.1,3.1,70,0.00,,---,0.00,VWS V14.01,2013-09-26 06:47:00,
2013-09-26 02:48:00,62.4,52.5,29.85,NW,312,3.1,3.1,70,0.00,,---,0.00,VWS V14.01,2013-09-26 06:48:00,
2013-09-26 02:50:00,62.6,52.7,29.85,North,357,3.6,3.6,70,0.00,,---,0.00,VWS V14.01,2013-09-26 06:50:00,
2013-09-26 02:51:00,62.6,52.7,29.85,North,0,4.9,4.9,70,0.00,,---,0.00,VWS V14.01,2013-09-26 06:51:00,
2013-09-26 02:52:00,62.6,52.7,29.85,NNW,343,3.6,3.6,70,0.00,,---,0.00,VWS V14.01,2013-09-26 06:52:00,
2013-09-26 02:53:00,62.6,52.7,29.85,NW,318,5.8,5.8,70,0.00,,---,0.00,VWS V14.01,2013-09-26 06:53:00,
2013-09-26 02:55:00,62.8,52.9,29.85,NNW,327,4.0,4.0,70,0.00,,---,0.00,VWS V14.01,2013-09-26 06:55:00,
2013-09-26 02:56:00,62.8,52.9,29.85,NW,315,2.2,2.2,70,0.00,,---,0.00,VWS V14.01,2013-09-26 06:56:00,
2013-09-26 02:57:00,62.8,52.9,29.85,North,353,3.1,3.1,70,0.00,,---,0.00,VWS V14.01,2013-09-26 06:57:00,
2013-09-26 02:58:00,62.8,52.9,29.85,NW,308,3.6,3.6,70,0.00,,---,0.00,VWS V14.01,2013-09-26 06:58:00,
2013-09-26 03:00:00,63.0,53.4,29.85,NNW,334,2.7,2.7,71,0.00,,---,0.00,VWS V14.01,2013-09-26 07:00:00,
2013-09-26 03:01:00,63.0,53.4,29.85,North,353,2.7,2.7,71,0.00,,---,0.00,VWS V14.01,2013-09-26 07:01:00,
2013-09-26 03:02:00,63.0,53.4,29.85,NNW,345,3.6,3.6,71,0.00,,---,0.00,VWS V14.01,2013-09-26 07:02:00,
2013-09-26 03:03:00,63.0,53.4,29.85,NNW,334,3.1,3.1,71,0.00,,---,0.00,VWS V14.01,2013-09-26 07:03:00,
2013-09-26 03:05:00,63.0,53.4,29.85,NNW,345,3.6,3.6,71,0.00,,---,0.00,VWS V14.01,2013-09-26 07:05:00,
2013-09-26 03:06:00,63.0,53.8,29.85,NNW,345,3.6,3.6,72,0.00,,---,0.00,VWS V14.01,2013-09-26 07:06:00,
2013-09-26 03:07:00,63.0,53.8,29.83,NNW,345,3.6,3.6,72,0.00,,---,0.00,VWS V14.01,2013-09-26 07:07:00,
2013-09-26 03:08:00,63.0,53.8,29.83,NNE,20,3.1,3.1,72,0.00,,---,0.00,VWS V14.01,2013-09-26 07:08:00,
2013-09-26 03:10:00,63.1,53.6,29.83,North,353,2.7,2.7,71,0.00,,---,0.00,VWS V14.01,2013-09-26 07:10:00,
2013-09-26 03:11:00,63.1,53.6,29.83,North,357,3.6,3.6,71,0.00,,---,0.00,VWS V14.01,2013-09-26 07:11:00,
2013-09-26 03:12:00,63.1,53.6,29.83,North,357,3.1,3.6,71,0.00,,---,0.00,VWS V14.01,2013-09-26 07:12:00,
2013-09-26 03:13:00,63.1,53.6,29.83,NNW,341,3.1,3.1,71,0.00,,---,0.00,VWS V14.01,2013-09-26 07:13:00,
2013-09-26 03:15:00,63.1,53.6,29.83,NNE,24,3.1,3.1,71,0.00,,---,0.00,VWS V14.01,2013-09-26 07:15:00,
2013-09-26 03:16:00,63.1,53.6,29.83,NNE,24,3.1,3.1,71,0.00,,---,0.00,VWS V14.01,2013-09-26 07:16:00,
2013-09-26 03:17:00,63.1,53.6,29.83,NNW,341,3.6,3.6,71,0.00,,---,0.00,VWS V14.01,2013-09-26 07:17:00,
2013-09-26 03:18:00,63.1,54.0,29.83,NNW,341,3.6,3.6,72,0.00,,---,0.00,VWS V14.01,2013-09-26 07:18:00,
2013-09-26 03:20:00,63.1,54.0,29.83,North,357,0.0,0.0,72,0.00,,---,0.00,VWS V14.01,2013-09-26 07:20:00,
2013-09-26 03:21:00,63.1,54.0,29.83,NNE,19,3.6,3.6,72,0.00,,---,0.00,VWS V14.01,2013-09-26 07:21:00,
2013-09-26 03:22:00,63.1,54.0,29.83,NNW,340,3.1,3.6,72,0.00,,---,0.00,VWS V14.01,2013-09-26 07:22:00,
2013-09-26 03:23:00,63.1,54.0,29.83,NNW,339,3.1,3.1,72,0.00,,---,0.00,VWS V14.01,2013-09-26 07:23:00,
2013-09-26 03:24:00,63.3,54.2,29.83,NNW,339,3.1,3.1,72,0.00,,---,0.00,VWS V14.01,2013-09-26 07:24:00,
2013-09-26 03:25:00,63.3,54.2,29.85,North,353,2.7,2.7,72,0.00,,---,0.00,VWS V14.01,2013-09-26 07:25:00,
2013-09-26 03:27:00,63.3,54.2,29.85,North,357,3.6,3.6,72,0.00,,---,0.00,VWS V14.01,2013-09-26 07:27:00,
2013-09-26 03:28:00,63.3,54.2,29.85,NW,308,2.2,3.6,72,0.00,,---,0.00,VWS V14.01,2013-09-26 07:28:00,
2013-09-26 03:29:00,63.3,54.2,29.85,NW,309,0.0,3.6,72,0.00,,---,0.00,VWS V14.01,2013-09-26 07:29:00,
2013-09-26 03:30:00,63.5,54.3,29.85,NW,309,0.0,0.0,72,0.00,,---,0.00,VWS V14.01,2013-09-26 07:30:00,
2013-09-26 03:32:00,63.5,54.3,29.85,North,353,0.0,0.0,72,0.00,,---,0.00,VWS V14.01,2013-09-26 07:32:00,
2013-09-26 03:33:00,63.5,54.3,29.85,North,353,0.0,0.0,72,0.00,,---,0.00,VWS V14.01,2013-09-26 07:33:00,
2013-09-26 03:34:00,63.5,54.3,29.85,NNE,16,0.0,0.0,72,0.00,,---,0.00,VWS V14.01,2013-09-26 07:34:00,
2013-09-26 03:35:00,63.5,54.3,29.85,NE,38,3.6,3.6,72,0.00,,---,0.00,VWS V14.01,2013-09-26 07:35:00,
2013-09-26 03:37:00,63.5,54.3,29.85,NE,40,3.6,3.6,72,0.00,,---,0.00,VWS V14.01,2013-09-26 07:37:00,
2013-09-26 03:38:00,63.5,54.3,29.85,North,349,0.0,3.1,72,0.00,,---,0.00,VWS V14.01,2013-09-26 07:38:00,
2013-09-26 03:39:00,63.5,54.3,29.85,North,349,0.0,3.1,72,0.00,,---,0.00,VWS V14.01,2013-09-26 07:39:00,
2013-09-26 03:41:00,63.5,54.3,29.85,West,269,0.0,0.0,72,0.00,,---,0.00,VWS V14.01,2013-09-26 07:41:00,
2013-09-26 03:42:00,63.5,54.3,29.85,West,277,2.7,2.7,72,0.00,,---,0.00,VWS V14.01,2013-09-26 07:42:00,
2013-09-26 03:43:00,63.5,54.3,29.85,NNW,327,3.1,3.1,72,0.00,,---,0.00,VWS V14.01,2013-09-26 07:43:00,
2013-09-26 03:44:00,63.5,54.3,29.85,NNW,327,3.1,3.1,72,0.00,,---,0.00,VWS V14.01,2013-09-26 07:44:00,
2013-09-26 03:46:00,63.5,54.3,29.85,WNW,298,3.1,3.1,72,0.00,,---,0.00,VWS V14.01,2013-09-26 07:46:00,
2013-09-26 03:47:00,63.5,54.3,29.85,NW,314,0.0,0.0,72,0.00,,---,0.00,VWS V14.01,2013-09-26 07:47:00,
2013-09-26 03:48:00,63.5,54.3,29.85,NW,314,0.0,0.0,72,0.00,,---,0.00,VWS V14.01,2013-09-26 07:48:00,
2013-09-26 03:49:00,63.5,54.3,29.85,North,353,4.0,4.0,72,0.00,,---,0.00,VWS V14.01,2013-09-26 07:49:00,
2013-09-26 03:51:00,63.5,54.3,29.85,NNE,23,2.2,3.1,72,0.00,,---,0.00,VWS V14.01,2013-09-26 07:51:00,
2013-09-26 03:52:00,63.5,54.3,29.85,NE,51,0.0,0.0,72,0.00,,---,0.00,VWS V14.01,2013-09-26 07:52:00,
2013-09-26 03:53:00,63.5,54.3,29.85,North,6,3.1,3.1,72,0.00,,---,0.00,VWS V14.01,2013-09-26 07:53:00,
2013-09-26 03:54:00,63.5,54.3,29.85,WNW,298,0.0,3.1,72,0.00,,---,0.00,VWS V14.01,2013-09-26 07:54:00,
2013-09-26 03:56:00,63.5,54.3,29.85,ESE,108,5.8,5.8,72,0.00,,---,0.00,VWS V14.01,2013-09-26 07:56:00,
2013-09-26 03:57:00,63.3,54.2,29.85,East,87,2.7,3.1,72,0.00,,---,0.00,VWS V14.01,2013-09-26 07:57:00,
2013-09-26 03:58:00,63.3,54.2,29.85,East,87,2.7,3.1,72,0.00,,---,0.00,VWS V14.01,2013-09-26 07:58:00,
2013-09-26 03:59:00,63.3,54.2,29.85,East,87,2.7,2.7,72,0.00,,---,0.00,VWS V14.01,2013-09-26 07:59:00,
2013-09-26 04:01:00,63.3,54.5,29.85,NNE,18,2.2,2.7,73,0.00,,---,0.00,VWS V14.01,2013-09-26 08:01:00,
2013-09-26 04:03:00,63.3,54.5,29.85,NW,317,0.0,2.7,73,0.00,,---,0.00,VWS V14.01,2013-09-26 08:03:00,
2013-09-26 04:04:00,63.3,54.5,29.85,NW,317,0.0,0.0,73,0.00,,---,0.00,VWS V14.01,2013-09-26 08:04:00,
2013-09-26 04:06:00,63.1,54.3,29.85,North,3,4.0,4.0,73,0.00,,---,0.00,VWS V14.01,2013-09-26 08:06:00,
2013-09-26 04:07:00,63.1,54.3,29.85,NE,50,4.0,4.0,73,0.00,,---,0.00,VWS V14.01,2013-09-26 08:07:00,
2013-09-26 04:08:00,63.1,54.3,29.85,NE,50,4.0,4.0,73,0.00,,---,0.00,VWS V14.01,2013-09-26 08:08:00,
2013-09-26 04:09:00,63.1,54.3,29.85,North,0,3.1,4.0,73,0.00,,---,0.00,VWS V14.01,2013-09-26 08:09:00,
2013-09-26 04:11:00,63.1,54.3,29.85,NW,321,2.7,2.7,73,0.00,,---,0.00,VWS V14.01,2013-09-26 08:11:00,
2013-09-26 04:13:00,63.1,54.3,29.85,North,8,4.0,5.4,73,0.00,,---,0.00,VWS V14.01,2013-09-26 08:13:00,
2013-09-26 04:14:00,63.0,54.2,29.85,NNE,25,5.4,5.4,73,0.00,,---,0.00,VWS V14.01,2013-09-26 08:14:00,
2013-09-26 04:16:00,63.0,54.2,29.85,NNE,25,5.4,5.4,73,0.00,,---,0.00,VWS V14.01,2013-09-26 08:16:00,
2013-09-26 04:18:00,63.0,54.2,29.85,NNW,336,3.1,3.1,73,0.00,,---,0.00,VWS V14.01,2013-09-26 08:18:00,
2013-09-26 04:19:00,63.0,54.2,29.85,NNW,336,3.1,3.1,73,0.00,,---,0.00,VWS V14.01,2013-09-26 08:19:00,
2013-09-26 04:21:00,62.8,54.4,29.85,NNW,332,2.7,5.8,74,0.00,,---,0.00,VWS V14.01,2013-09-26 08:21:00,
2013-09-26 04:23:00,62.8,54.4,29.85,NNW,332,0.0,2.7,74,0.00,,---,0.00,VWS V14.01,2013-09-26 08:23:00,
2013-09-26 04:24:00,62.8,54.4,29.85,NNW,332,0.0,2.7,74,0.00,,---,0.00,VWS V14.01,2013-09-26 08:24:00,
2013-09-26 04:26:00,62.8,54.4,29.85,NNW,332,0.0,0.0,74,0.00,,---,0.00,VWS V14.01,2013-09-26 08:26:00,
2013-09-26 04:28:00,62.8,54.4,29.85,NNW,332,0.0,0.0,74,0.00,,---,0.00,VWS V14.01,2013-09-26 08:28:00,
2013-09-26 04:29:00,62.8,54.4,29.85,NNW,332,0.0,0.0,74,0.00,,---,0.00,VWS V14.01,2013-09-26 08:29:00,
2013-09-26 04:31:00,62.8,54.4,29.85,NNW,332,0.0,0.0,74,0.00,,---,0.00,VWS V14.01,2013-09-26 08:31:00,
2013-09-26 04:33:00,62.8,54.4,29.85,NNW,332,0.0,0.0,74,0.00,,---,0.00,VWS V14.01,2013-09-26 08:33:00,
2013-09-26 04:34:00,62.6,54.2,29.85,NNW,332,0.0,0.0,74,0.00,,---,0.00,VWS V14.01,2013-09-26 08:34:00,
2013-09-26 04:36:00,62.6,54.2,29.85,NNW,332,0.0,0.0,74,0.00,,---,0.00,VWS V14.01,2013-09-26 08:36:00,
2013-09-26 04:38:00,62.6,54.2,29.85,NNW,333,0.0,0.0,74,0.00,,---,0.00,VWS V14.01,2013-09-26 08:38:00,
2013-09-26 04:39:00,62.6,54.2,29.85,NNW,333,0.0,0.0,74,0.00,,---,0.00,VWS V14.01,2013-09-26 08:39:00,
2013-09-26 04:41:00,62.6,54.2,29.85,NNW,333,2.2,2.2,74,0.00,,---,0.00,VWS V14.01,2013-09-26 08:41:00,
2013-09-26 04:43:00,62.6,54.2,29.85,NNW,333,0.0,0.0,74,0.00,,---,0.00,VWS V14.01,2013-09-26 08:43:00,
2013-09-26 04:44:00,62.6,54.2,29.85,NNW,333,0.0,0.0,74,0.00,,---,0.00,VWS V14.01,2013-09-26 08:44:00,
2013-09-26 04:47:00,62.4,54.4,29.85,NNW,333,0.0,0.0,75,0.00,,---,0.00,VWS V14.01,2013-09-26 08:47:00,
2013-09-26 04:48:00,62.4,54.4,29.85,NNW,333,0.0,0.0,75,0.00,,---,0.00,VWS V14.01,2013-09-26 08:48:00,
2013-09-26 04:49:00,62.4,54.4,29.85,NNW,333,0.0,0.0,75,0.04,,---,0.04,VWS V14.01,2013-09-26 08:49:00,
2013-09-26 04:52:00,62.4,54.4,29.85,NNW,333,3.6,3.6,75,0.04,,---,0.04,VWS V14.01,2013-09-26 08:52:00,
2013-09-26 04:53:00,62.4,54.4,29.85,NNW,342,0.0,0.0,75,0.04,,---,0.04,VWS V14.01,2013-09-26 08:53:00,
2013-09-26 04:54:00,62.4,54.4,29.85,NNW,342,2.7,2.7,75,0.04,,---,0.04,VWS V14.01,2013-09-26 08:54:00,
2013-09-26 04:57:00,62.4,54.4,29.85,NNW,343,0.0,0.0,75,0.04,,---,0.04,VWS V14.01,2013-09-26 08:57:00,
2013-09-26 04:58:00,62.4,54.4,29.85,NNW,343,0.0,0.0,75,0.04,,---,0.04,VWS V14.01,2013-09-26 08:58:00,
2013-09-26 04:59:00,62.4,54.8,29.85,NNW,343,0.0,0.0,76,0.04,,---,0.04,VWS V14.01,2013-09-26 08:59:00,
2013-09-26 05:00:00,62.4,54.8,29.85,NNW,345,3.6,3.6,76,0.04,,---,0.04,VWS V14.01,2013-09-26 09:00:00,
2013-09-26 05:02:00,62.2,54.6,29.85,NNW,348,2.2,2.2,76,0.04,,---,0.04,VWS V14.01,2013-09-26 09:02:00,
2013-09-26 05:03:00,62.2,54.6,29.85,NNW,346,0.0,0.0,76,0.04,,---,0.04,VWS V14.01,2013-09-26 09:03:00,
2013-09-26 05:04:00,62.2,54.6,29.85,NNW,330,2.7,3.6,76,0.04,,---,0.04,VWS V14.01,2013-09-26 09:04:00,
2013-09-26 05:05:00,62.2,54.6,29.85,NNW,330,2.7,3.6,76,0.04,,---,0.04,VWS V14.01,2013-09-26 09:05:00,
2013-09-26 05:07:00,62.2,54.6,29.85,NNW,327,3.6,4.0,76,0.04,,---,0.04,VWS V14.01,2013-09-26 09:07:00,
2013-09-26 05:08:00,62.2,54.6,29.85,North,357,3.6,3.6,76,0.04,,---,0.04,VWS V14.01,2013-09-26 09:08:00,
2013-09-26 05:09:00,62.2,55.0,29.85,North,357,3.6,3.6,77,0.04,,---,0.04,VWS V14.01,2013-09-26 09:09:00,
2013-09-26 05:10:00,62.2,55.0,29.85,NW,310,0.0,3.6,77,0.04,,---,0.04,VWS V14.01,2013-09-26 09:10:00,
2013-09-26 05:12:00,62.2,55.0,29.85,NNW,335,2.7,2.7,77,0.04,,---,0.04,VWS V14.01,2013-09-26 09:12:00,
2013-09-26 05:13:00,62.2,55.0,29.85,North,2,0.0,0.0,77,0.04,,---,0.04,VWS V14.01,2013-09-26 09:13:00,
2013-09-26 05:14:00,62.2,55.0,29.85,North,2,0.0,0.0,77,0.04,,---,0.04,VWS V14.01,2013-09-26 09:14:00,
2013-09-26 05:15:00,62.2,55.0,29.85,North,2,0.0,0.0,77,0.04,,---,0.04,VWS V14.01,2013-09-26 09:15:00,
2013-09-26 05:17:00,62.2,55.0,29.85,North,353,0.0,0.0,77,0.04,,---,0.04,VWS V14.01,2013-09-26 09:17:00,
2013-09-26 05:18:00,62.2,55.0,29.85,North,353,0.0,0.0,77,0.04,,---,0.04,VWS V14.01,2013-09-26 09:18:00,
2013-09-26 05:19:00,62.2,55.0,29.85,NNE,24,3.1,3.1,77,0.04,,---,0.04,VWS V14.01,2013-09-26 09:19:00,
2013-09-26 05:20:00,62.2,55.0,29.85,NNE,24,3.1,3.1,77,0.04,,---,0.04,VWS V14.01,2013-09-26 09:20:00,
2013-09-26 05:22:00,62.2,55.0,29.85,West,280,0.0,0.0,77,0.04,,---,0.04,VWS V14.01,2013-09-26 09:22:00,
2013-09-26 05:23:00,62.2,55.0,29.85,West,280,0.0,0.0,77,0.04,,---,0.04,VWS V14.01,2013-09-26 09:23:00,
2013-09-26 05:24:00,62.2,55.0,29.85,WNW,303,0.0,0.0,77,0.04,,---,0.04,VWS V14.01,2013-09-26 09:24:00,
2013-09-26 05:25:00,62.2,55.0,29.85,NNW,334,0.0,0.0,77,0.04,,---,0.04,VWS V14.01,2013-09-26 09:25:00,
2013-09-26 05:28:00,62.1,54.8,29.85,NNW,341,0.0,3.6,77,0.04,,---,0.04,VWS V14.01,2013-09-26 09:28:00,
2013-09-26 05:29:00,62.1,54.8,29.85,NNW,341,0.0,0.0,77,0.04,,---,0.04,VWS V14.01,2013-09-26 09:29:00,
2013-09-26 05:30:00,62.1,55.1,29.85,WNW,300,0.0,0.0,78,0.04,,---,0.04,VWS V14.01,2013-09-26 09:30:00,
2013-09-26 05:33:00,62.1,55.1,29.85,NW,314,2.7,2.7,78,0.04,,---,0.04,VWS V14.01,2013-09-26 09:33:00,
2013-09-26 05:34:00,62.1,55.1,29.85,NW,314,2.2,2.2,78,0.04,,---,0.04,VWS V14.01,2013-09-26 09:34:00,
2013-09-26 05:35:00,62.1,55.1,29.85,NW,319,2.7,2.7,78,0.04,,---,0.04,VWS V14.01,2013-09-26 09:35:00,
2013-09-26 05:38:00,62.1,55.1,29.85,NW,320,2.2,2.2,78,0.04,,---,0.04,VWS V14.01,2013-09-26 09:38:00,
2013-09-26 05:39:00,62.1,55.1,29.85,NW,312,0.0,0.0,78,0.04,,---,0.04,VWS V14.01,2013-09-26 09:39:00,
2013-09-26 05:40:00,62.1,55.1,29.85,NW,312,0.0,0.0,78,0.04,,---,0.04,VWS V14.01,2013-09-26 09:40:00,
2013-09-26 05:43:00,61.9,55.0,29.85,NW,318,0.0,0.0,78,0.04,,---,0.04,VWS V14.01,2013-09-26 09:43:00,
2013-09-26 05:44:00,61.9,55.0,29.85,NW,318,0.0,0.0,78,0.04,,---,0.04,VWS V14.01,2013-09-26 09:44:00,
2013-09-26 05:45:00,61.9,55.0,29.85,NW,318,0.0,0.0,78,0.04,,---,0.04,VWS V14.01,2013-09-26 09:45:00,
2013-09-26 05:48:00,61.9,55.0,29.85,NW,310,2.7,4.9,78,0.04,,---,0.04,VWS V14.01,2013-09-26 09:48:00,
2013-09-26 05:49:00,61.9,55.0,29.85,NW,310,0.0,0.0,78,0.00,,---,0.04,VWS V14.01,2013-09-26 09:49:00,
2013-09-26 05:50:00,61.9,55.0,29.85,NW,310,0.0,0.0,78,0.00,,---,0.04,VWS V14.01,2013-09-26 09:50:00,
2013-09-26 05:53:00,61.9,55.3,29.85,NW,314,4.0,4.0,79,0.00,,---,0.04,VWS V14.01,2013-09-26 09:53:00,
2013-09-26 05:55:00,61.9,55.3,29.85,WNW,290,3.6,3.6,79,0.00,,---,0.04,VWS V14.01,2013-09-26 09:55:00,
2013-09-26 05:58:00,61.9,55.3,29.85,NNW,335,3.1,3.1,79,0.00,,---,0.04,VWS V14.01,2013-09-26 09:58:00,
2013-09-26 06:00:00,61.9,55.3,29.85,NNE,17,2.2,2.2,79,0.00,,---,0.04,VWS V14.01,2013-09-26 10:00:00,
2013-09-26 06:03:00,61.9,55.3,29.85,North,1,3.6,3.6,79,0.00,,---,0.04,VWS V14.01,2013-09-26 10:03:00,
2013-09-26 06:05:00,61.9,55.3,29.85,NNW,333,5.4,5.4,79,0.00,,---,0.04,VWS V14.01,2013-09-26 10:05:00,
2013-09-26 06:08:00,61.9,55.7,29.85,NNW,341,2.7,2.7,80,0.00,,---,0.04,VWS V14.01,2013-09-26 10:08:00,
2013-09-26 06:10:00,61.9,55.7,29.85,NNW,341,2.7,2.7,80,0.00,,---,0.04,VWS V14.01,2013-09-26 10:10:00,
2013-09-26 06:13:00,61.9,55.7,29.85,WNW,303,3.1,3.1,80,0.00,,---,0.04,VWS V14.01,2013-09-26 10:13:00,
2013-09-26 06:14:00,61.9,55.7,29.85,WNW,303,3.1,3.1,80,0.00,,---,0.04,VWS V14.01,2013-09-26 10:14:00,
2013-09-26 06:15:00,61.9,55.7,29.85,NNW,335,0.0,0.0,80,0.00,,---,0.04,VWS V14.01,2013-09-26 10:15:00,
2013-09-26 06:19:00,61.7,55.5,29.85,NNE,19,0.0,0.0,80,0.00,,---,0.04,VWS V14.01,2013-09-26 10:19:00,
2013-09-26 06:20:00,61.7,55.5,29.85,NNE,33,0.0,0.0,80,0.00,,---,0.04,VWS V14.01,2013-09-26 10:20:00,
2013-09-26 06:23:00,61.7,55.5,29.85,North,353,0.0,0.0,80,0.00,,---,0.04,VWS V14.01,2013-09-26 10:23:00,
2013-09-26 06:24:00,61.7,55.5,29.85,North,353,0.0,0.0,80,0.00,,---,0.04,VWS V14.01,2013-09-26 10:24:00,
2013-09-26 06:25:00,61.7,55.5,29.85,NNW,332,0.0,0.0,80,0.00,,---,0.04,VWS V14.01,2013-09-26 10:25:00,
2013-09-26 06:29:00,61.7,55.5,29.85,NW,321,0.0,0.0,80,0.00,,---,0.04,VWS V14.01,2013-09-26 10:29:00,
2013-09-26 06:30:00,61.7,55.5,29.85,NNW,335,3.1,3.1,80,0.00,,---,0.04,VWS V14.01,2013-09-26 10:30:00,
2013-09-26 06:34:00,61.7,55.5,29.85,NNW,340,0.0,0.0,80,0.00,,---,0.04,VWS V14.01,2013-09-26 10:34:00,
2013-09-26 06:35:00,61.7,55.5,29.85,WNW,295,0.0,0.0,80,0.00,,---,0.04,VWS V14.01,2013-09-26 10:35:00,
2013-09-26 06:36:00,61.7,55.5,29.85,NW,305,0.0,0.0,80,0.00,,---,0.04,VWS V14.01,2013-09-26 10:36:00,
2013-09-26 06:39:00,61.7,55.5,29.85,WNW,283,0.0,0.0,80,0.00,,---,0.04,VWS V14.01,2013-09-26 10:39:00,
2013-09-26 06:40:00,61.7,55.5,29.85,WNW,283,0.0,0.0,80,0.00,,---,0.04,VWS V14.01,2013-09-26 10:40:00,
2013-09-26 06:41:00,61.7,55.5,29.85,WNW,283,0.0,0.0,80,0.00,,---,0.04,VWS V14.01,2013-09-26 10:41:00,
2013-09-26 06:44:00,61.7,55.5,29.85,WNW,291,0.0,0.0,80,0.00,,---,0.04,VWS V14.01,2013-09-26 10:44:00,
2013-09-26 06:46:00,61.7,55.5,29.85,WNW,291,0.0,0.0,80,0.00,,---,0.04,VWS V14.01,2013-09-26 10:46:00,
2013-09-26 06:49:00,61.7,55.8,29.85,WNW,291,0.0,0.0,81,0.00,,---,0.04,VWS V14.01,2013-09-26 10:49:00,
2013-09-26 06:51:00,61.7,55.8,29.85,WNW,291,0.0,0.0,81,0.00,,---,0.04,VWS V14.01,2013-09-26 10:51:00,
2013-09-26 06:54:00,61.7,55.8,29.88,WNW,291,0.0,0.0,81,0.00,,---,0.04,VWS V14.01,2013-09-26 10:54:00,
2013-09-26 06:56:00,61.7,55.8,29.88,NNW,330,0.0,0.0,81,0.00,,---,0.04,VWS V14.01,2013-09-26 10:56:00,
2013-09-26 06:59:00,61.5,55.6,29.88,NW,304,0.0,0.0,81,0.00,,---,0.04,VWS V14.01,2013-09-26 10:59:00,
2013-09-26 07:01:00,61.5,55.6,29.88,NW,325,0.0,0.0,81,0.00,,---,0.04,VWS V14.01,2013-09-26 11:01:00,
2013-09-26 07:04:00,61.5,55.6,29.88,NNE,31,0.0,0.0,81,0.00,,---,0.04,VWS V14.01,2013-09-26 11:04:00,
2013-09-26 07:06:00,61.5,56.0,29.88,North,353,0.0,0.0,82,0.00,,---,0.04,VWS V14.01,2013-09-26 11:06:00,
2013-09-26 07:09:00,61.5,56.0,29.85,North,0,0.0,0.0,82,0.00,,---,0.04,VWS V14.01,2013-09-26 11:09:00,
2013-09-26 07:11:00,61.5,56.3,29.85,East,81,0.0,0.0,83,0.00,,---,0.04,VWS V14.01,2013-09-26 11:11:00,
2013-09-26 07:14:00,61.5,56.3,29.85,West,280,0.0,0.0,83,0.00,,---,0.04,VWS V14.01,2013-09-26 11:14:00,
2013-09-26 07:16:00,61.5,56.3,29.85,WSW,237,0.0,0.0,83,0.00,,---,0.04,VWS V14.01,2013-09-26 11:16:00,
2013-09-26 07:19:00,61.5,56.3,29.85,WSW,246,0.0,0.0,83,0.00,,---,0.00,VWS V14.01,2013-09-26 11:19:00,
2013-09-26 07:21:00,61.5,56.3,29.85,WNW,285,0.0,0.0,83,0.00,,---,0.04,VWS V14.01,2013-09-26 11:21:00,
2013-09-26 07:24:00,61.5,56.3,29.85,North,7,3.1,3.6,83,0.04,,---,0.08,VWS V14.01,2013-09-26 11:24:00,
2013-09-26 07:26:00,61.5,56.3,29.85,NNE,14,3.1,3.1,83,0.04,,---,0.08,VWS V14.01,2013-09-26 11:26:00,
2013-09-26 07:29:00,61.5,56.3,29.85,North,350,0.0,0.0,83,0.04,,---,0.08,VWS V14.01,2013-09-26 11:29:00,
2013-09-26 07:30:00,61.5,56.3,29.85,North,350,0.0,0.0,83,0.04,,---,0.08,VWS V14.01,2013-09-26 11:30:00,
2013-09-26 07:31:00,61.5,56.3,29.85,West,272,0.0,0.0,83,0.04,,---,0.08,VWS V14.01,2013-09-26 11:31:00,
2013-09-26 07:32:00,61.5,56.3,29.85,North,353,2.7,2.7,83,0.04,,---,0.08,VWS V14.01,2013-09-26 11:32:00,
2013-09-26 07:34:00,61.5,56.3,29.85,NNW,335,0.0,0.0,83,0.04,,---,0.08,VWS V14.01,2013-09-26 11:34:00,
2013-09-26 07:35:00,61.5,56.3,29.85,NNW,348,0.0,0.0,83,0.04,,---,0.08,VWS V14.01,2013-09-26 11:35:00,
2013-09-26 07:36:00,61.5,56.3,29.85,North,9,3.1,3.6,83,0.04,,---,0.08,VWS V14.01,2013-09-26 11:36:00,
2013-09-26 07:37:00,61.5,56.3,29.85,North,9,3.1,3.1,83,0.04,,---,0.08,VWS V14.01,2013-09-26 11:37:00,
2013-09-26 07:39:00,61.5,56.3,29.85,NNW,340,3.1,3.1,83,0.04,,---,0.08,VWS V14.01,2013-09-26 11:39:00,
2013-09-26 07:40:00,61.5,56.7,29.85,NNW,340,3.1,3.1,84,0.04,,---,0.08,VWS V14.01,2013-09-26 11:40:00,
2013-09-26 07:41:00,61.5,56.7,29.85,NNW,340,3.1,3.1,84,0.04,,---,0.08,VWS V14.01,2013-09-26 11:41:00,
2013-09-26 07:42:00,61.5,56.7,29.85,NNW,338,0.0,0.0,84,0.04,,---,0.08,VWS V14.01,2013-09-26 11:42:00,
2013-09-26 07:44:00,61.5,56.7,29.85,NNW,338,4.9,4.9,84,0.04,,---,0.08,VWS V14.01,2013-09-26 11:44:00,
2013-09-26 07:45:00,61.5,56.7,29.85,NNW,338,4.9,4.9,84,0.04,,---,0.08,VWS V14.01,2013-09-26 11:45:00,
2013-09-26 07:46:00,61.5,56.7,29.85,NNW,338,2.2,3.1,84,0.04,,---,0.08,VWS V14.01,2013-09-26 11:46:00,
2013-09-26 07:47:00,61.5,56.7,29.85,WNW,297,0.0,2.2,84,0.04,,---,0.08,VWS V14.01,2013-09-26 11:47:00,
2013-09-26 07:49:00,61.5,56.7,29.85,NE,55,0.0,0.0,84,0.04,,---,0.08,VWS V14.01,2013-09-26 11:49:00,
2013-09-26 07:50:00,61.5,56.7,29.85,NNE,25,0.0,0.0,84,0.04,,---,0.08,VWS V14.01,2013-09-26 11:50:00,
2013-09-26 07:51:00,61.5,56.7,29.85,NNE,25,0.0,0.0,84,0.04,,---,0.08,VWS V14.01,2013-09-26 11:51:00,
2013-09-26 07:52:00,61.5,56.7,29.85,NNE,25,0.0,0.0,84,0.04,,---,0.08,VWS V14.01,2013-09-26 11:52:00,
2013-09-26 07:54:00,61.5,57.3,29.85,NW,323,0.0,0.0,86,0.04,,---,0.08,VWS V14.01,2013-09-26 11:54:00,
2013-09-26 07:55:00,61.5,57.3,29.85,NW,323,0.0,0.0,86,0.04,,---,0.08,VWS V14.01,2013-09-26 11:55:00,
2013-09-26 07:56:00,61.5,57.3,29.85,NW,323,0.0,0.0,86,0.04,,---,0.08,VWS V14.01,2013-09-26 11:56:00,
2013-09-26 07:57:00,61.5,57.3,29.85,NNE,18,2.2,2.2,86,0.04,,---,0.08,VWS V14.01,2013-09-26 11:57:00,
2013-09-26 07:59:00,61.5,57.3,29.85,NNW,331,2.7,2.7,86,0.04,,---,0.08,VWS V14.01,2013-09-26 11:59:00,
2013-09-26 08:01:00,61.5,57.3,29.85,North,357,4.0,4.0,86,0.04,,---,0.08,VWS V14.01,2013-09-26 12:01:00,
2013-09-26 08:02:00,61.5,57.3,29.85,NW,316,0.0,3.1,86,0.04,,---,0.08,VWS V14.01,2013-09-26 12:02:00,
2013-09-26 08:04:00,61.5,57.3,29.85,NW,307,2.7,2.7,86,0.04,,---,0.08,VWS V14.01,2013-09-26 12:04:00,
2013-09-26 08:06:00,61.5,57.3,29.85,NW,307,2.7,2.7,86,0.04,,---,0.08,VWS V14.01,2013-09-26 12:06:00,
2013-09-26 08:07:00,61.5,57.3,29.85,NW,321,2.7,2.7,86,0.04,,---,0.08,VWS V14.01,2013-09-26 12:07:00,
2013-09-26 08:09:00,61.5,57.3,29.85,WNW,295,4.0,4.0,86,0.04,,---,0.08,VWS V14.01,2013-09-26 12:09:00,
2013-09-26 08:11:00,61.5,57.3,29.85,NW,306,2.2,2.2,86,0.04,,---,0.08,VWS V14.01,2013-09-26 12:11:00,
2013-09-26 08:12:00,61.5,57.3,29.85,NNW,331,4.0,4.0,86,0.04,,---,0.08,VWS V14.01,2013-09-26 12:12:00,
2013-09-26 08:13:00,61.5,57.3,29.85,NNW,331,4.0,4.0,86,0.04,,---,0.08,VWS V14.01,2013-09-26 12:13:00,
2013-09-26 08:14:00,61.9,57.7,29.85,WNW,302,0.0,0.0,86,0.04,,---,0.08,VWS V14.01,2013-09-26 12:14:00,
2013-09-26 08:16:00,61.9,57.7,29.85,WNW,302,0.0,0.0,86,0.04,,---,0.08,VWS V14.01,2013-09-26 12:16:00,
2013-09-26 08:17:00,61.9,57.7,29.85,WNW,302,0.0,0.0,86,0.04,,---,0.08,VWS V14.01,2013-09-26 12:17:00,
2013-09-26 08:18:00,61.9,57.7,29.85,WNW,302,0.0,0.0,86,0.04,,---,0.08,VWS V14.01,2013-09-26 12:18:00,
2013-09-26 08:19:00,61.9,57.7,29.85,NW,322,0.0,0.0,86,0.04,,---,0.08,VWS V14.01,2013-09-26 12:19:00,
2013-09-26 08:21:00,61.9,57.7,29.85,WNW,303,2.7,2.7,86,0.04,,---,0.08,VWS V14.01,2013-09-26 12:21:00,
2013-09-26 08:22:00,61.9,57.7,29.85,WNW,298,2.7,2.7,86,0.04,,---,0.08,VWS V14.01,2013-09-26 12:22:00,
2013-09-26 08:23:00,61.9,57.7,29.85,WNW,293,2.2,2.2,86,0.00,,---,0.08,VWS V14.01,2013-09-26 12:23:00,
2013-09-26 08:24:00,61.9,57.7,29.85,WNW,303,0.0,2.7,86,0.00,,---,0.08,VWS V14.01,2013-09-26 12:24:00,
2013-09-26 08:26:00,61.9,57.7,29.85,WNW,287,0.0,0.0,86,0.00,,---,0.08,VWS V14.01,2013-09-26 12:26:00,
2013-09-26 08:27:00,61.9,57.7,29.85,NW,308,2.2,2.2,86,0.00,,---,0.08,VWS V14.01,2013-09-26 12:27:00,
2013-09-26 08:28:00,62.1,57.8,29.88,NW,309,0.0,0.0,86,0.00,,---,0.08,VWS V14.01,2013-09-26 12:28:00,
2013-09-26 08:29:00,62.1,57.8,29.88,NNW,327,0.0,0.0,86,0.00,,---,0.08,VWS V14.01,2013-09-26 12:29:00,
2013-09-26 08:31:00,62.4,58.5,29.88,NNW,332,0.0,0.0,87,0.00,,---,0.08,VWS V14.01,2013-09-26 12:31:00,
2013-09-26 08:32:00,62.4,58.5,29.88,NNW,332,0.0,0.0,87,0.00,,---,0.08,VWS V14.01,2013-09-26 12:32:00,
2013-09-26 08:33:00,62.6,59.0,29.88,NW,321,2.2,2.2,88,0.00,,---,0.08,VWS V14.01,2013-09-26 12:33:00,
2013-09-26 08:34:00,62.8,59.2,29.88,NNW,330,0.0,2.2,88,0.00,,---,0.08,VWS V14.01,2013-09-26 12:34:00,
2013-09-26 08:36:00,63.0,59.4,29.88,NW,304,2.7,5.8,88,0.00,,---,0.08,VWS V14.01,2013-09-26 12:36:00,
2013-09-26 08:37:00,63.0,59.4,29.88,NW,304,2.7,2.7,88,0.00,,---,0.08,VWS V14.01,2013-09-26 12:37:00,
2013-09-26 08:38:00,63.0,59.4,29.88,North,4,3.6,3.6,88,0.00,,---,0.08,VWS V14.01,2013-09-26 12:38:00,
2013-09-26 08:39:00,63.1,59.8,29.88,North,357,4.0,4.0,89,0.00,,---,0.08,VWS V14.01,2013-09-26 12:39:00,
2013-09-26 08:42:00,63.5,60.2,29.88,NNW,336,4.9,5.8,89,0.00,,---,0.08,VWS V14.01,2013-09-26 12:42:00,
2013-09-26 08:43:00,63.5,60.2,29.88,North,357,5.8,5.8,89,0.00,,---,0.08,VWS V14.01,2013-09-26 12:43:00,
2013-09-26 08:44:00,63.7,60.4,29.88,North,10,4.0,4.0,89,0.00,,---,0.08,VWS V14.01,2013-09-26 12:44:00,
2013-09-26 08:46:00,63.7,60.4,29.88,WSW,258,3.6,3.6,89,0.00,,---,0.08,VWS V14.01,2013-09-26 12:46:00,
2013-09-26 08:47:00,63.9,60.6,29.88,WNW,296,3.6,3.6,89,0.00,,---,0.08,VWS V14.01,2013-09-26 12:47:00,
2013-09-26 08:48:00,63.9,60.6,29.88,North,353,2.7,3.6,89,0.00,,---,0.08,VWS V14.01,2013-09-26 12:48:00,
2013-09-26 08:50:00,64.0,60.7,29.88,NNW,335,5.8,5.8,89,0.00,,---,0.08,VWS V14.01,2013-09-26 12:50:00,
2013-09-26 08:51:00,64.2,61.2,29.88,NNE,23,2.2,3.1,90,0.00,,---,0.08,VWS V14.01,2013-09-26 12:51:00,
2013-09-26 08:52:00,64.2,61.2,29.88,NNW,331,2.7,2.7,90,0.00,,---,0.08,VWS V14.01,2013-09-26 12:52:00,
2013-09-26 08:53:00,64.2,61.2,29.88,NNW,331,2.7,2.7,90,0.00,,---,0.08,VWS V14.01,2013-09-26 12:53:00,
2013-09-26 08:54:00,64.4,61.1,29.88,NNW,339,4.0,4.0,89,0.00,,---,0.08,VWS V14.01,2013-09-26 12:54:00,
2013-09-26 08:56:00,64.6,61.0,29.88,West,265,5.4,5.4,88,0.00,,---,0.08,VWS V14.01,2013-09-26 12:56:00,
2013-09-26 08:57:00,64.6,61.0,29.88,West,265,5.4,5.4,88,0.00,,---,0.08,VWS V14.01,2013-09-26 12:57:00,
2013-09-26 08:58:00,64.6,61.0,29.88,West,265,5.4,5.4,88,0.00,,---,0.08,VWS V14.01,2013-09-26 12:58:00,
2013-09-26 08:59:00,64.8,61.1,29.88,West,265,5.4,5.4,88,0.00,,---,0.08,VWS V14.01,2013-09-26 12:59:00,
2013-09-26 09:00:00,64.8,61.1,29.88,North,357,2.2,5.4,88,0.00,,---,0.08,VWS V14.01,2013-09-26 13:00:00,
2013-09-26 09:01:00,64.9,61.3,29.88,North,357,2.7,2.7,88,0.00,,---,0.08,VWS V14.01,2013-09-26 13:01:00,
2013-09-26 09:02:00,64.9,61.3,29.88,NNW,327,3.6,3.6,88,0.00,,---,0.08,VWS V14.01,2013-09-26 13:02:00,
2013-09-26 09:03:00,64.9,61.3,29.88,NNW,332,3.6,6.3,88,0.00,,---,0.08,VWS V14.01,2013-09-26 13:03:00,
2013-09-26 09:04:00,65.1,61.8,29.88,North,6,2.7,6.3,89,0.00,,---,0.08,VWS V14.01,2013-09-26 13:04:00,
2013-09-26 09:07:00,65.5,61.8,29.88,West,273,2.7,2.7,88,0.00,,---,0.08,VWS V14.01,2013-09-26 13:07:00,
2013-09-26 09:08:00,65.5,61.8,29.88,North,353,5.4,5.4,88,0.00,,---,0.08,VWS V14.01,2013-09-26 13:08:00,
2013-09-26 09:09:00,65.5,61.8,29.88,North,5,3.1,5.4,88,0.00,,---,0.08,VWS V14.01,2013-09-26 13:09:00,
2013-09-26 09:12:00,65.5,61.8,29.88,NNW,327,3.6,3.6,88,0.00,,---,0.08,VWS V14.01,2013-09-26 13:12:00,
2013-09-26 09:13:00,65.5,61.8,29.88,North,353,5.4,5.4,88,0.00,,---,0.08,VWS V14.01,2013-09-26 13:13:00,
2013-09-26 09:14:00,65.5,61.8,29.88,NW,304,2.2,5.4,88,0.00,,---,0.08,VWS V14.01,2013-09-26 13:14:00,
2013-09-26 09:17:00,66.2,61.9,29.88,NNW,344,6.3,8.3,86,0.00,,---,0.08,VWS V14.01,2013-09-26 13:17:00,
2013-09-26 09:18:00,66.2,61.9,29.88,WNW,299,5.4,5.4,86,0.00,,---,0.08,VWS V14.01,2013-09-26 13:18:00,
2013-09-26 09:19:00,66.2,61.6,29.88,NW,319,3.6,3.6,85,0.00,,---,0.08,VWS V14.01,2013-09-26 13:19:00,
2013-09-26 09:22:00,66.2,61.6,29.88,NW,318,3.6,3.6,85,0.00,,---,0.08,VWS V14.01,2013-09-26 13:22:00,
2013-09-26 09:23:00,66.4,60.7,29.88,NNW,341,3.6,7.6,82,0.00,,---,0.08,VWS V14.01,2013-09-26 13:23:00,
2013-09-26 09:24:00,66.4,60.7,29.88,North,3,5.4,5.4,82,0.00,,---,0.08,VWS V14.01,2013-09-26 13:24:00,
2013-09-26 09:27:00,66.4,60.4,29.88,North,357,3.1,3.6,81,0.00,,---,0.08,VWS V14.01,2013-09-26 13:27:00,
2013-09-26 09:28:00,66.6,60.2,29.88,North,2,2.7,2.7,80,0.00,,---,0.08,VWS V14.01,2013-09-26 13:28:00,
2013-09-26 09:29:00,66.6,59.8,29.88,North,2,2.7,2.7,79,0.00,,---,0.08,VWS V14.01,2013-09-26 13:29:00,
2013-09-26 09:30:00,66.6,59.8,29.88,NNW,344,5.4,5.4,79,0.00,,---,0.08,VWS V14.01,2013-09-26 13:30:00,
2013-09-26 09:32:00,66.7,60.4,29.88,NNW,339,2.2,2.2,80,0.00,,---,0.08,VWS V14.01,2013-09-26 13:32:00,
2013-09-26 09:33:00,66.7,60.4,29.88,NNW,346,2.7,2.7,80,0.00,,---,0.08,VWS V14.01,2013-09-26 13:33:00,
2013-09-26 09:34:00,66.7,60.4,29.88,NNW,346,2.7,2.7,80,0.00,,---,0.08,VWS V14.01,2013-09-26 13:34:00,
2013-09-26 09:37:00,66.7,60.4,29.88,NNW,329,6.3,6.3,80,0.00,,---,0.08,VWS V14.01,2013-09-26 13:37:00,
2013-09-26 09:38:00,66.7,60.4,29.88,North,1,6.3,6.3,80,0.00,,---,0.08,VWS V14.01,2013-09-26 13:38:00,
2013-09-26 09:39:00,66.9,59.1,29.88,NNW,345,4.0,4.0,76,0.00,,---,0.08,VWS V14.01,2013-09-26 13:39:00,
2013-09-26 09:42:00,67.1,59.3,29.88,WNW,293,2.7,2.7,76,0.00,,---,0.08,VWS V14.01,2013-09-26 13:42:00,
2013-09-26 09:43:00,67.1,59.3,29.88,North,357,3.6,8.7,76,0.00,,---,0.08,VWS V14.01,2013-09-26 13:43:00,
2013-09-26 09:44:00,67.5,59.6,29.88,North,357,3.6,3.6,76,0.00,,---,0.08,VWS V14.01,2013-09-26 13:44:00,
2013-09-26 09:47:00,67.5,58.1,29.88,NNW,337,5.8,5.8,72,0.00,,---,0.08,VWS V14.01,2013-09-26 13:47:00,
2013-09-26 09:48:00,67.5,58.1,29.88,North,350,6.3,6.3,72,0.00,,---,0.08,VWS V14.01,2013-09-26 13:48:00,
2013-09-26 09:49:00,67.6,58.3,29.88,NNE,22,5.8,6.3,72,0.00,,---,0.08,VWS V14.01,2013-09-26 13:49:00,
2013-09-26 09:50:00,67.8,58.5,29.88,NNE,22,5.8,6.3,72,0.00,,---,0.08,VWS V14.01,2013-09-26 13:50:00,
2013-09-26 09:52:00,68.2,58.4,29.88,NNE,12,6.3,6.3,71,0.00,,---,0.08,VWS V14.01,2013-09-26 13:52:00,
2013-09-26 09:53:00,68.2,58.4,29.88,NNE,12,6.3,6.3,71,0.00,,---,0.08,VWS V14.01,2013-09-26 13:53:00,
2013-09-26 09:54:00,68.2,58.4,29.88,NNE,12,6.3,6.3,71,0.00,,---,0.08,VWS V14.01,2013-09-26 13:54:00,
2013-09-26 09:55:00,68.2,58.4,29.88,NNW,341,2.7,6.3,71,0.00,,---,0.08,VWS V14.01,2013-09-26 13:55:00,
2013-09-26 09:57:00,68.5,57.2,29.88,NW,311,3.1,4.0,67,0.00,,---,0.08,VWS V14.01,2013-09-26 13:57:00,
2013-09-26 09:58:00,68.7,57.3,29.88,NW,311,3.1,3.1,67,0.00,,---,0.08,VWS V14.01,2013-09-26 13:58:00,
2013-09-26 10:00:00,68.7,57.3,29.88,NNE,14,5.4,5.4,67,0.00,,---,0.00,VWS V14.01,2013-09-26 14:00:00,
2013-09-26 10:02:00,68.7,57.3,29.88,NE,48,5.8,5.8,67,0.00,,---,0.08,VWS V14.01,2013-09-26 14:02:00,
2013-09-26 10:03:00,68.7,57.3,29.88,NE,48,5.8,5.8,67,0.00,,---,0.08,VWS V14.01,2013-09-26 14:03:00,
2013-09-26 10:05:00,69.1,50.2,29.88,NE,48,5.8,5.8,51,0.00,,---,0.08,VWS V14.01,2013-09-26 14:05:00,
2013-09-26 10:07:00,69.3,49.3,29.88,North,0,7.6,7.6,49,0.00,,---,0.08,VWS V14.01,2013-09-26 14:07:00,
2013-09-26 10:08:00,69.3,49.3,29.88,North,357,6.7,7.6,49,0.00,,---,0.08,VWS V14.01,2013-09-26 14:08:00,
2013-09-26 10:10:00,69.3,50.4,29.88,East,96,3.1,3.1,51,0.00,,---,0.08,VWS V14.01,2013-09-26 14:10:00,
2013-09-26 10:12:00,69.4,51.1,29.91,NNE,20,6.3,7.2,52,0.00,,---,0.08,VWS V14.01,2013-09-26 14:12:00,
2013-09-26 10:13:00,69.4,51.1,29.91,ESE,108,4.5,7.2,52,0.00,,---,0.08,VWS V14.01,2013-09-26 14:13:00,
2013-09-26 10:15:00,70.0,52.1,29.91,NNE,18,5.4,5.4,53,0.00,,---,0.08,VWS V14.01,2013-09-26 14:15:00,
2013-09-26 10:17:00,70.2,47.8,29.91,NNE,19,3.1,5.8,45,0.00,,---,0.08,VWS V14.01,2013-09-26 14:17:00,
2013-09-26 10:18:00,70.2,47.8,29.91,NNE,19,3.1,5.8,45,0.00,,---,0.08,VWS V14.01,2013-09-26 14:18:00,
2013-09-26 10:20:00,70.2,48.4,29.91,NNW,328,8.1,8.1,46,0.00,,---,0.08,VWS V14.01,2013-09-26 14:20:00,
2013-09-26 10:22:00,70.2,48.4,29.91,NNE,14,3.6,3.6,46,0.00,,---,0.08,VWS V14.01,2013-09-26 14:22:00,
2013-09-26 10:23:00,70.2,48.4,29.91,NNE,14,3.6,3.6,46,0.00,,---,0.08,VWS V14.01,2013-09-26 14:23:00,
2013-09-26 10:25:00,70.2,48.4,29.91,NW,321,5.4,5.4,46,0.00,,---,0.08,VWS V14.01,2013-09-26 14:25:00,
2013-09-26 10:28:00,70.5,47.6,29.91,North,0,3.1,3.1,44,0.00,,---,0.08,VWS V14.01,2013-09-26 14:28:00,
2013-09-26 10:30:00,70.5,48.8,29.91,North,353,8.1,8.1,46,0.00,,---,0.08,VWS V14.01,2013-09-26 14:30:00,
2013-09-26 10:33:00,70.5,48.8,29.91,ENE,65,5.4,5.4,46,0.00,,---,0.08,VWS V14.01,2013-09-26 14:33:00,
2013-09-26 10:35:00,70.9,46.7,29.91,ENE,65,5.4,5.4,42,0.00,,---,0.08,VWS V14.01,2013-09-26 14:35:00,
2013-09-26 10:38:00,70.9,47.9,29.91,NE,36,5.4,5.4,44,0.00,,---,0.08,VWS V14.01,2013-09-26 14:38:00,
2013-09-26 10:40:00,70.9,47.9,29.91,East,85,5.4,5.4,44,0.00,,---,0.08,VWS V14.01,2013-09-26 14:40:00,
2013-09-26 10:43:00,71.2,48.8,29.91,NE,39,4.0,4.0,45,0.00,,---,0.08,VWS V14.01,2013-09-26 14:43:00,
2013-09-26 10:44:00,71.2,48.8,29.91,NNW,344,4.9,4.9,45,0.00,,---,0.08,VWS V14.01,2013-09-26 14:44:00,
2013-09-26 10:45:00,71.8,47.5,29.91,ENE,67,5.4,5.4,42,0.00,,---,0.08,VWS V14.01,2013-09-26 14:45:00,
2013-09-26 10:48:00,71.8,47.5,29.91,North,357,4.0,4.0,42,0.00,,---,0.08,VWS V14.01,2013-09-26 14:48:00,
2013-09-26 10:49:00,72.1,45.2,29.91,North,357,4.0,4.0,38,0.00,,---,0.08,VWS V14.01,2013-09-26 14:49:00,
2013-09-26 10:50:00,72.0,45.7,29.91,North,357,4.0,4.0,39,0.00,,---,0.08,VWS V14.01,2013-09-26 14:50:00,
2013-09-26 10:53:00,72.0,46.3,29.91,NE,55,5.4,5.4,40,0.00,,---,0.08,VWS V14.01,2013-09-26 14:53:00,
2013-09-26 10:54:00,72.0,46.3,29.91,NE,55,5.4,5.4,40,0.00,,---,0.08,VWS V14.01,2013-09-26 14:54:00,
2013-09-26 10:55:00,72.0,46.3,29.91,East,85,8.1,8.1,40,0.00,,---,0.08,VWS V14.01,2013-09-26 14:55:00,
2013-09-26 10:56:00,72.0,46.3,29.91,NE,52,8.7,8.7,40,0.00,,---,0.08,VWS V14.01,2013-09-26 14:56:00,
2013-09-26 10:58:00,72.1,47.2,29.91,NNW,333,5.4,5.4,41,0.00,,---,0.08,VWS V14.01,2013-09-26 14:58:00,
2013-09-26 10:59:00,72.3,47.3,29.91,NNW,333,5.4,5.4,41,0.00,,---,0.08,VWS V14.01,2013-09-26 14:59:00,
2013-09-26 11:00:00,72.3,47.3,29.91,NW,322,3.1,3.1,41,0.00,,---,0.08,VWS V14.01,2013-09-26 15:00:00,
2013-09-26 11:01:00,72.5,46.8,29.91,NW,322,3.1,3.1,40,0.00,,---,0.08,VWS V14.01,2013-09-26 15:01:00,
2013-09-26 11:03:00,72.5,46.8,29.91,NNE,21,5.4,5.8,40,0.00,,---,0.08,VWS V14.01,2013-09-26 15:03:00,
2013-09-26 11:05:00,72.7,45.6,29.91,NNE,21,6.3,6.3,38,0.00,,---,0.08,VWS V14.01,2013-09-26 15:05:00,
2013-09-26 11:06:00,72.9,46.5,29.91,ENE,77,4.0,6.3,39,0.00,,---,0.08,VWS V14.01,2013-09-26 15:06:00,
2013-09-26 11:08:00,72.9,46.5,29.91,NNW,344,7.2,7.2,39,0.00,,---,0.08,VWS V14.01,2013-09-26 15:08:00,
2013-09-26 11:10:00,73.4,46.3,29.91,North,353,5.4,5.4,38,0.00,,---,0.08,VWS V14.01,2013-09-26 15:10:00,
2013-09-26 11:11:00,73.4,46.3,29.91,NNE,26,3.1,3.1,38,0.00,,---,0.08,VWS V14.01,2013-09-26 15:11:00,
2013-09-26 11:13:00,73.6,45.7,29.91,NNW,327,8.3,8.3,37,0.00,,---,0.08,VWS V14.01,2013-09-26 15:13:00,
2013-09-26 11:15:00,73.6,44.3,29.91,NNE,28,5.8,5.8,35,0.00,,---,0.08,VWS V14.01,2013-09-26 15:15:00,
2013-09-26 11:16:00,73.4,44.1,29.91,NE,49,5.8,5.8,35,0.00,,---,0.08,VWS V14.01,2013-09-26 15:16:00,
2013-09-26 11:19:00,73.2,44.7,29.91,NNE,16,3.6,3.6,36,0.00,,---,0.08,VWS V14.01,2013-09-26 15:19:00,
2013-09-26 11:20:00,73.2,44.7,29.91,North,357,4.9,4.9,36,0.00,,---,0.08,VWS V14.01,2013-09-26 15:20:00,
2013-09-26 11:21:00,73.2,45.4,29.91,NW,326,7.6,7.6,37,0.00,,---,0.08,VWS V14.01,2013-09-26 15:21:00,
2013-09-26 11:24:00,73.4,44.8,29.91,NE,36,3.6,7.6,36,0.00,,---,0.08,VWS V14.01,2013-09-26 15:24:00,
2013-09-26 11:25:00,73.6,45.0,29.91,NNW,333,6.3,6.3,36,0.00,,---,0.08,VWS V14.01,2013-09-26 15:25:00,
2013-09-26 11:27:00,73.6,45.0,29.91,North,1,6.3,8.3,36,0.00,,---,0.08,VWS V14.01,2013-09-26 15:27:00,
2013-09-26 11:29:00,73.6,44.3,29.91,North,1,2.7,6.3,35,0.00,,---,0.08,VWS V14.01,2013-09-26 15:29:00,
2013-09-26 11:30:00,73.8,44.4,29.91,NNE,32,4.0,5.4,35,0.00,,---,0.08,VWS V14.01,2013-09-26 15:30:00,
2013-09-26 11:32:00,73.8,44.4,29.91,NNE,30,5.8,5.8,35,0.00,,---,0.08,VWS V14.01,2013-09-26 15:32:00,
2013-09-26 11:34:00,73.8,44.4,29.91,NNE,27,7.2,7.2,35,0.00,,---,0.08,VWS V14.01,2013-09-26 15:34:00,
2013-09-26 11:35:00,73.2,43.2,29.91,NW,315,3.6,3.6,34,0.00,,---,0.08,VWS V14.01,2013-09-26 15:35:00,
2013-09-26 11:37:00,73.2,43.2,29.91,ENE,58,5.8,5.8,34,0.00,,---,0.08,VWS V14.01,2013-09-26 15:37:00,
2013-09-26 11:39:00,72.9,44.4,29.91,North,0,6.3,6.3,36,0.00,,---,0.08,VWS V14.01,2013-09-26 15:39:00,
2013-09-26 11:40:00,72.9,44.4,29.91,NE,54,4.0,6.3,36,0.00,,---,0.08,VWS V14.01,2013-09-26 15:40:00,
2013-09-26 11:42:00,72.9,44.4,29.91,ENE,60,3.6,3.6,36,0.00,,---,0.08,VWS V14.01,2013-09-26 15:42:00,
2013-09-26 11:44:00,72.9,43.6,29.91,ENE,65,5.8,5.8,35,0.00,,---,0.08,VWS V14.01,2013-09-26 15:44:00,
2013-09-26 11:45:00,72.9,43.6,29.91,NNE,14,2.7,5.4,35,0.00,,---,0.08,VWS V14.01,2013-09-26 15:45:00,
2013-09-26 11:47:00,72.9,43.6,29.91,East,87,3.1,3.1,35,0.00,,---,0.08,VWS V14.01,2013-09-26 15:47:00,
2013-09-26 11:49:00,73.0,44.5,29.91,NE,46,3.6,3.6,36,0.00,,---,0.08,VWS V14.01,2013-09-26 15:49:00,
2013-09-26 11:50:00,73.0,44.5,29.91,ENE,57,6.3,6.3,36,0.00,,---,0.08,VWS V14.01,2013-09-26 15:50:00,
2013-09-26 11:52:00,73.0,44.5,29.91,North,6,4.9,4.9,36,0.00,,---,0.08,VWS V14.01,2013-09-26 15:52:00,
2013-09-26 11:54:00,73.4,43.3,29.91,NE,37,5.8,5.8,34,0.00,,---,0.08,VWS V14.01,2013-09-26 15:54:00,
2013-09-26 11:55:00,73.4,43.3,29.91,North,0,5.4,5.4,34,0.00,,---,0.08,VWS V14.01,2013-09-26 15:55:00,
2013-09-26 11:57:00,73.2,44.0,29.91,NW,315,3.1,5.8,35,0.00,,---,0.08,VWS V14.01,2013-09-26 15:57:00,
2013-09-26 11:59:00,73.2,44.0,29.91,West,265,4.0,8.1,35,0.00,,---,0.08,VWS V14.01,2013-09-26 15:59:00,
2013-09-26 12:00:00,73.2,44.0,29.91,NW,308,4.9,4.9,35,0.00,,---,0.08,VWS V14.01,2013-09-26 16:00:00,
2013-09-26 12:02:00,73.6,44.3,29.91,ENE,61,5.4,5.4,35,0.00,,---,0.08,VWS V14.01,2013-09-26 16:02:00,
2013-09-26 12:04:00,73.8,43.7,29.91,North,357,5.4,5.4,34,0.00,,---,0.08,VWS V14.01,2013-09-26 16:04:00,
2013-09-26 12:05:00,73.8,43.7,29.91,NNW,337,5.4,5.4,34,0.00,,---,0.08,VWS V14.01,2013-09-26 16:05:00,
2013-09-26 12:07:00,73.6,43.5,29.91,NNW,348,4.0,8.7,34,0.00,,---,0.08,VWS V14.01,2013-09-26 16:07:00,
2013-09-26 12:09:00,73.6,43.5,29.91,NNW,348,4.0,4.0,34,0.00,,---,0.08,VWS V14.01,2013-09-26 16:09:00,
2013-09-26 12:10:00,73.6,43.5,29.91,North,357,6.3,6.3,34,0.00,,---,0.08,VWS V14.01,2013-09-26 16:10:00,
2013-09-26 12:12:00,73.6,43.5,29.91,North,0,6.3,6.3,34,0.00,,---,0.08,VWS V14.01,2013-09-26 16:12:00,
2013-09-26 12:14:00,73.6,43.5,29.91,North,353,4.0,4.0,34,0.00,,---,0.08,VWS V14.01,2013-09-26 16:14:00,
2013-09-26 12:15:00,73.6,43.5,29.91,North,353,4.0,4.0,34,0.00,,---,0.08,VWS V14.01,2013-09-26 16:15:00,
2013-09-26 12:17:00,73.8,43.7,29.91,NNW,345,3.1,3.1,34,0.00,,---,0.08,VWS V14.01,2013-09-26 16:17:00,
2013-09-26 12:19:00,73.8,43.7,29.91,NW,324,7.2,7.2,34,0.00,,---,0.08,VWS V14.01,2013-09-26 16:19:00,
2013-09-26 12:20:00,73.8,43.7,29.91,NNW,335,8.1,11.9,34,0.00,,---,0.08,VWS V14.01,2013-09-26 16:20:00,
2013-09-26 12:22:00,74.3,44.9,29.91,North,0,7.6,7.6,35,0.00,,---,0.08,VWS V14.01,2013-09-26 16:22:00,
2013-09-26 12:24:00,74.5,45.1,29.88,NNE,25,2.7,3.6,35,0.00,,---,0.08,VWS V14.01,2013-09-26 16:24:00,
2013-09-26 12:25:00,74.5,45.1,29.88,NNW,338,7.6,7.6,35,0.00,,---,0.08,VWS V14.01,2013-09-26 16:25:00,
2013-09-26 12:27:00,74.7,44.5,29.88,WNW,286,3.1,3.1,34,0.00,,---,0.08,VWS V14.01,2013-09-26 16:27:00,
2013-09-26 12:29:00,74.7,44.5,29.88,North,357,5.8,5.8,34,0.00,,---,0.08,VWS V14.01,2013-09-26 16:29:00,
2013-09-26 12:30:00,74.7,44.5,29.88,ESE,122,5.8,5.8,34,0.00,,---,0.08,VWS V14.01,2013-09-26 16:30:00,
2013-09-26 12:32:00,74.7,44.5,29.88,WNW,301,10.5,10.5,34,0.00,,---,0.08,VWS V14.01,2013-09-26 16:32:00,
2013-09-26 12:34:00,74.7,44.5,29.88,NNE,21,5.4,10.5,34,0.00,,---,0.08,VWS V14.01,2013-09-26 16:34:00,
2013-09-26 12:35:00,74.7,44.5,29.88,East,91,4.0,5.4,34,0.00,,---,0.08,VWS V14.01,2013-09-26 16:35:00,
2013-09-26 12:37:00,74.8,44.6,29.88,NNW,329,4.9,8.3,34,0.00,,---,0.08,VWS V14.01,2013-09-26 16:37:00,
2013-09-26 12:39:00,74.8,44.6,29.91,NE,41,5.8,5.8,34,0.00,,---,0.08,VWS V14.01,2013-09-26 16:39:00,
2013-09-26 12:40:00,75.0,44.8,29.91,NE,41,6.3,6.3,34,0.00,,---,0.08,VWS V14.01,2013-09-26 16:40:00,
2013-09-26 12:42:00,75.0,44.8,29.91,NW,322,3.6,8.7,34,0.00,,---,0.08,VWS V14.01,2013-09-26 16:42:00,
2013-09-26 12:44:00,74.8,44.6,29.91,North,357,3.1,4.9,34,0.00,,---,0.08,VWS V14.01,2013-09-26 16:44:00,
2013-09-26 12:45:00,74.8,44.6,29.91,North,353,3.6,6.3,34,0.00,,---,0.08,VWS V14.01,2013-09-26 16:45:00,
2013-09-26 12:47:00,74.7,44.5,29.91,West,273,8.3,8.3,34,0.00,,---,0.08,VWS V14.01,2013-09-26 16:47:00,
2013-09-26 12:49:00,74.5,43.5,29.91,NNE,19,3.6,6.3,33,0.00,,---,0.08,VWS V14.01,2013-09-26 16:49:00,
2013-09-26 12:50:00,74.5,43.5,29.91,North,357,5.8,6.3,33,0.00,,---,0.08,VWS V14.01,2013-09-26 16:50:00,
2013-09-26 12:53:00,74.3,43.4,29.91,NNW,330,3.1,4.9,33,0.00,,---,0.08,VWS V14.01,2013-09-26 16:53:00,
2013-09-26 12:54:00,74.3,43.4,29.91,North,7,3.6,3.6,33,0.00,,---,0.08,VWS V14.01,2013-09-26 16:54:00,
2013-09-26 12:55:00,74.1,43.2,29.91,North,7,3.6,3.6,33,0.00,,---,0.08,VWS V14.01,2013-09-26 16:55:00,
2013-09-26 12:58:00,74.1,44.0,29.91,North,353,5.8,5.8,34,0.00,,---,0.08,VWS V14.01,2013-09-26 16:58:00,
2013-09-26 12:59:00,74.1,44.0,29.91,NE,51,4.9,4.9,34,0.00,,---,0.08,VWS V14.01,2013-09-26 16:59:00,
2013-09-26 13:00:00,74.1,44.0,29.91,NNW,333,0.0,4.0,34,0.00,,---,0.08,VWS V14.01,2013-09-26 17:00:00,
2013-09-26 13:03:00,74.5,44.3,29.91,NE,39,5.4,5.4,34,0.00,,---,0.08,VWS V14.01,2013-09-26 17:03:00,
2013-09-26 13:04:00,74.5,44.3,29.91,NNE,15,4.9,5.4,34,0.00,,---,0.08,VWS V14.01,2013-09-26 17:04:00,
2013-09-26 13:05:00,74.8,43.8,29.91,NNW,341,3.6,4.9,33,0.00,,---,0.08,VWS V14.01,2013-09-26 17:05:00,
2013-09-26 13:06:00,74.8,43.8,29.91,North,7,8.1,8.1,33,0.00,,---,0.08,VWS V14.01,2013-09-26 17:06:00,
2013-09-26 13:08:00,74.8,43.8,29.91,NW,308,2.7,4.0,33,0.00,,---,0.08,VWS V14.01,2013-09-26 17:08:00,
2013-09-26 13:09:00,74.7,44.5,29.91,NNW,341,2.7,2.7,34,0.00,,---,0.08,VWS V14.01,2013-09-26 17:09:00,
2013-09-26 13:10:00,74.7,43.7,29.91,NNW,341,2.7,2.7,33,0.00,,---,0.08,VWS V14.01,2013-09-26 17:10:00,
2013-09-26 13:11:00,74.7,43.7,29.91,North,0,4.0,4.0,33,0.00,,---,0.08,VWS V14.01,2013-09-26 17:11:00,
2013-09-26 13:13:00,74.7,43.7,29.91,NW,304,3.1,3.1,33,0.00,,---,0.08,VWS V14.01,2013-09-26 17:13:00,
2013-09-26 13:14:00,74.7,43.7,29.91,NW,325,6.3,6.3,33,0.00,,---,0.08,VWS V14.01,2013-09-26 17:14:00,
2013-09-26 13:15:00,74.7,44.5,29.91,NW,325,6.3,6.3,34,0.00,,---,0.08,VWS V14.01,2013-09-26 17:15:00,
2013-09-26 13:16:00,74.7,44.5,29.91,NE,49,2.7,6.3,34,0.00,,---,0.08,VWS V14.01,2013-09-26 17:16:00,
2013-09-26 13:18:00,74.5,44.3,29.91,NNW,328,5.4,5.4,34,0.00,,---,0.08,VWS V14.01,2013-09-26 17:18:00,
2013-09-26 13:20:00,74.3,43.4,29.91,NW,313,3.1,5.4,33,0.00,,---,0.08,VWS V14.01,2013-09-26 17:20:00,
2013-09-26 13:21:00,74.3,44.1,29.91,NW,306,3.6,3.6,34,0.00,,---,0.08,VWS V14.01,2013-09-26 17:21:00,
2013-09-26 13:23:00,74.1,44.0,29.91,ENE,61,5.4,5.4,34,0.00,,---,0.08,VWS V14.01,2013-09-26 17:23:00,
2013-09-26 13:25:00,73.9,43.8,29.91,North,4,2.7,3.6,34,0.00,,---,0.08,VWS V14.01,2013-09-26 17:25:00,
2013-09-26 13:26:00,73.9,43.8,29.91,NW,317,2.7,4.9,34,0.00,,---,0.08,VWS V14.01,2013-09-26 17:26:00,
2013-09-26 13:28:00,73.8,43.7,29.91,NE,36,5.4,5.4,34,0.00,,---,0.08,VWS V14.01,2013-09-26 17:28:00,
2013-09-26 13:30:00,73.9,43.8,29.91,North,353,3.1,5.4,34,0.00,,---,0.08,VWS V14.01,2013-09-26 17:30:00,
2013-09-26 13:31:00,73.8,43.7,29.91,NNE,31,2.2,4.0,34,0.00,,---,0.08,VWS V14.01,2013-09-26 17:31:00,
2013-09-26 13:33:00,73.6,43.5,29.91,NE,46,3.1,3.1,34,0.00,,---,0.08,VWS V14.01,2013-09-26 17:33:00,
2013-09-26 13:35:00,73.4,43.3,29.91,NE,39,3.1,3.1,34,0.00,,---,0.08,VWS V14.01,2013-09-26 17:35:00,
2013-09-26 13:36:00,73.4,43.3,29.91,NE,39,3.1,3.1,34,0.00,,---,0.08,VWS V14.01,2013-09-26 17:36:00,
2013-09-26 13:39:00,73.2,44.0,29.91,North,1,5.4,5.4,35,0.00,,---,0.08,VWS V14.01,2013-09-26 17:39:00,
2013-09-26 13:40:00,73.0,43.8,29.91,North,349,4.0,5.4,35,0.00,,---,0.08,VWS V14.01,2013-09-26 17:40:00,
2013-09-26 13:41:00,73.0,43.8,29.91,NNE,24,3.1,4.0,35,0.00,,---,0.08,VWS V14.01,2013-09-26 17:41:00,
2013-09-26 13:44:00,72.9,43.6,29.91,North,2,3.6,6.3,35,0.00,,---,0.08,VWS V14.01,2013-09-26 17:44:00,
2013-09-26 13:45:00,73.0,43.8,29.91,NW,309,8.1,8.1,35,0.00,,---,0.08,VWS V14.01,2013-09-26 17:45:00,
2013-09-26 13:46:00,73.0,43.8,29.91,NW,304,5.4,5.4,35,0.00,,---,0.08,VWS V14.01,2013-09-26 17:46:00,
2013-09-26 13:49:00,73.0,43.8,29.91,WSW,243,6.3,6.3,35,0.00,,---,0.08,VWS V14.01,2013-09-26 17:49:00,
2013-09-26 13:50:00,73.0,43.8,29.91,WSW,243,6.3,6.3,35,0.00,,---,0.08,VWS V14.01,2013-09-26 17:50:00,
2013-09-26 13:51:00,73.0,43.8,29.91,NNE,13,3.6,3.6,35,0.00,,---,0.08,VWS V14.01,2013-09-26 17:51:00,
2013-09-26 13:54:00,73.8,44.4,29.91,NW,311,3.6,3.6,35,0.00,,---,0.08,VWS V14.01,2013-09-26 17:54:00,
2013-09-26 13:55:00,73.9,44.6,29.91,NNE,21,4.0,4.0,35,0.00,,---,0.08,VWS V14.01,2013-09-26 17:55:00,
2013-09-26 13:56:00,73.9,44.6,29.91,North,357,8.7,8.7,35,0.00,,---,0.08,VWS V14.01,2013-09-26 17:56:00,
2013-09-26 13:59:00,73.9,43.8,29.91,NW,326,5.4,6.3,34,0.00,,---,0.08,VWS V14.01,2013-09-26 17:59:00,
2013-09-26 14:00:00,73.9,43.8,29.91,NW,326,5.4,5.4,34,0.00,,---,0.08,VWS V14.01,2013-09-26 18:00:00,
2013-09-26 14:01:00,74.1,44.0,29.91,North,5,3.6,5.4,34,0.00,,---,0.08,VWS V14.01,2013-09-26 18:01:00,
2013-09-26 14:04:00,74.1,44.0,29.91,North,0,5.8,5.8,34,0.00,,---,0.08,VWS V14.01,2013-09-26 18:04:00,
2013-09-26 14:06:00,74.3,43.4,29.91,North,5,7.6,7.6,33,0.00,,---,0.08,VWS V14.01,2013-09-26 18:06:00,
2013-09-26 14:09:00,74.3,43.4,29.88,NE,42,6.3,6.3,33,0.00,,---,0.08,VWS V14.01,2013-09-26 18:09:00,
2013-09-26 14:11:00,74.1,43.2,29.88,NNW,329,3.6,5.8,33,0.00,,---,0.08,VWS V14.01,2013-09-26 18:11:00,
2013-09-26 14:14:00,74.1,43.2,29.88,NW,324,5.4,8.7,33,0.00,,---,0.08,VWS V14.01,2013-09-26 18:14:00,
2013-09-26 14:16:00,74.1,43.2,29.88,NW,312,4.0,7.6,33,0.00,,---,0.08,VWS V14.01,2013-09-26 18:16:00,
2013-09-26 14:19:00,74.8,43.8,29.88,ENE,60,4.0,4.0,33,0.00,,---,0.08,VWS V14.01,2013-09-26 18:19:00,
2013-09-26 14:21:00,75.0,44.0,29.88,NNW,341,4.0,8.7,33,0.00,,---,0.08,VWS V14.01,2013-09-26 18:21:00,
2013-09-26 14:24:00,75.6,43.7,29.88,WSW,256,0.0,2.7,32,0.00,,---,0.08,VWS V14.01,2013-09-26 18:24:00,
2013-09-26 14:26:00,75.6,43.7,29.88,WSW,255,0.0,0.0,32,0.00,,---,0.08,VWS V14.01,2013-09-26 18:26:00,
2013-09-26 14:29:00,75.7,43.8,29.88,NNE,14,0.0,0.0,32,0.00,,---,0.08,VWS V14.01,2013-09-26 18:29:00,
2013-09-26 14:31:00,76.1,44.1,29.88,NNE,14,0.0,0.0,32,0.00,,---,0.00,VWS V14.01,2013-09-26 18:31:00,
2013-09-26 14:34:00,76.3,44.3,29.88,North,353,8.1,8.3,32,0.00,,---,0.08,VWS V14.01,2013-09-26 18:34:00,
2013-09-26 14:36:00,76.5,44.4,29.88,NW,313,3.6,3.6,32,0.00,,---,0.08,VWS V14.01,2013-09-26 18:36:00,
2013-09-26 14:39:00,76.8,44.8,29.88,NNW,344,3.1,6.3,32,0.00,,---,0.08,VWS V14.01,2013-09-26 18:39:00,
2013-09-26 14:41:00,77.0,44.9,29.88,NNW,337,4.0,4.0,32,0.00,,---,0.08,VWS V14.01,2013-09-26 18:41:00,
2013-09-26 14:45:00,77.2,45.1,29.88,NNW,341,9.2,9.2,32,0.00,,---,0.08,VWS V14.01,2013-09-26 18:45:00,
2013-09-26 14:46:00,77.2,45.1,29.88,North,353,5.8,5.8,32,0.00,,---,0.08,VWS V14.01,2013-09-26 18:46:00,
2013-09-26 14:47:00,77.2,45.1,29.88,NW,314,3.6,7.6,32,0.00,,---,0.08,VWS V14.01,2013-09-26 18:47:00,
2013-09-26 14:50:00,77.2,45.1,29.88,North,350,5.4,5.4,32,0.00,,---,0.08,VWS V14.01,2013-09-26 18:50:00,
2013-09-26 14:51:00,77.2,45.1,29.88,North,353,4.0,4.0,32,0.00,,---,0.08,VWS V14.01,2013-09-26 18:51:00,
2013-09-26 14:52:00,76.6,44.6,29.88,NW,326,5.4,5.4,32,0.00,,---,0.08,VWS V14.01,2013-09-26 18:52:00,
2013-09-26 14:55:00,76.5,44.4,29.88,WNW,298,2.7,2.7,32,0.00,,---,0.08,VWS V14.01,2013-09-26 18:55:00,
2013-09-26 14:56:00,76.5,44.4,29.88,North,357,8.1,8.1,32,0.00,,---,0.08,VWS V14.01,2013-09-26 18:56:00,
2013-09-26 14:57:00,76.5,44.4,29.88,WNW,284,2.7,2.7,32,0.00,,---,0.08,VWS V14.01,2013-09-26 18:57:00,
2013-09-26 15:00:00,76.5,44.4,29.88,North,349,3.6,8.7,32,0.00,,---,0.08,VWS V14.01,2013-09-26 19:00:00,
2013-09-26 15:01:00,76.6,44.6,29.88,WNW,288,4.0,4.0,32,0.00,,---,0.08,VWS V14.01,2013-09-26 19:01:00,
2013-09-26 15:02:00,76.6,44.6,29.88,WNW,294,8.7,8.7,32,0.00,,---,0.08,VWS V14.01,2013-09-26 19:02:00,
2013-09-26 15:05:00,76.6,44.6,29.88,North,5,0.0,2.7,32,0.00,,---,0.08,VWS V14.01,2013-09-26 19:05:00,
2013-09-26 15:06:00,76.6,44.6,29.88,NW,309,0.0,0.0,32,0.00,,---,0.08,VWS V14.01,2013-09-26 19:06:00,
2013-09-26 15:07:00,76.8,44.8,29.88,WSW,246,4.0,4.0,32,0.00,,---,0.08,VWS V14.01,2013-09-26 19:07:00,
2013-09-26 15:10:00,76.8,44.8,29.88,North,350,6.3,6.3,32,0.00,,---,0.08,VWS V14.01,2013-09-26 19:10:00,
2013-09-26 15:11:00,77.0,44.1,29.88,North,350,6.3,6.3,31,0.00,,---,0.08,VWS V14.01,2013-09-26 19:11:00,
2013-09-26 15:12:00,77.0,44.1,29.88,WNW,300,7.2,7.2,31,0.00,,---,0.08,VWS V14.01,2013-09-26 19:12:00,
2013-09-26 15:15:00,77.2,44.2,29.88,North,3,5.8,5.8,31,0.00,,---,0.08,VWS V14.01,2013-09-26 19:15:00,
2013-09-26 15:16:00,77.2,44.2,29.88,ENE,70,3.1,5.8,31,0.00,,---,0.08,VWS V14.01,2013-09-26 19:16:00,
2013-09-26 15:17:00,77.2,44.2,29.88,ENE,71,0.0,0.0,31,0.00,,---,0.08,VWS V14.01,2013-09-26 19:17:00,
2013-09-26 15:20:00,77.2,44.2,29.88,North,353,3.1,3.1,31,0.00,,---,0.08,VWS V14.01,2013-09-26 19:20:00,
2013-09-26 15:21:00,77.2,44.2,29.88,North,353,3.1,3.1,31,0.00,,---,0.08,VWS V14.01,2013-09-26 19:21:00,
2013-09-26 15:22:00,77.4,45.2,29.88,NNW,332,4.0,4.0,32,0.00,,---,0.08,VWS V14.01,2013-09-26 19:22:00,
2013-09-26 15:25:00,77.5,44.5,29.88,NNW,335,8.3,8.3,31,0.00,,---,0.08,VWS V14.01,2013-09-26 19:25:00,
2013-09-26 15:26:00,77.5,44.5,29.88,NNW,335,8.3,8.3,31,0.00,,---,0.08,VWS V14.01,2013-09-26 19:26:00,
2013-09-26 15:27:00,77.5,44.5,29.88,North,6,4.0,4.0,31,0.00,,---,0.08,VWS V14.01,2013-09-26 19:27:00,
2013-09-26 15:30:00,77.7,44.7,29.88,North,353,7.6,7.6,31,0.00,,---,0.08,VWS V14.01,2013-09-26 19:30:00,
2013-09-26 15:31:00,77.7,44.7,29.88,North,353,7.6,7.6,31,0.00,,---,0.08,VWS V14.01,2013-09-26 19:31:00,
2013-09-26 15:32:00,77.7,44.7,29.88,NW,310,4.9,4.9,31,0.00,,---,0.08,VWS V14.01,2013-09-26 19:32:00,
2013-09-26 15:35:00,77.7,45.5,29.88,NNW,346,4.0,4.0,32,0.00,,---,0.08,VWS V14.01,2013-09-26 19:35:00,
2013-09-26 15:36:00,77.7,45.5,29.88,North,353,4.9,4.9,32,0.00,,---,0.08,VWS V14.01,2013-09-26 19:36:00,
2013-09-26 15:37:00,77.7,44.7,29.88,NE,35,8.3,8.3,31,0.00,,---,0.08,VWS V14.01,2013-09-26 19:37:00,
2013-09-26 15:41:00,77.9,44.9,29.88,NW,304,8.7,8.7,31,0.00,,---,0.08,VWS V14.01,2013-09-26 19:41:00,
2013-09-26 15:42:00,77.7,44.7,29.88,North,1,8.7,8.7,31,0.00,,---,0.08,VWS V14.01,2013-09-26 19:42:00,
2013-09-26 15:46:00,77.7,44.7,29.88,NNW,342,7.6,7.6,31,0.00,,---,0.08,VWS V14.01,2013-09-26 19:46:00,
2013-09-26 15:47:00,77.7,44.7,29.88,NNE,13,7.2,9.6,31,0.00,,---,0.08,VWS V14.01,2013-09-26 19:47:00,
2013-09-26 15:51:00,77.0,44.1,29.88,North,353,8.7,8.7,31,0.00,,---,0.08,VWS V14.01,2013-09-26 19:51:00,
2013-09-26 15:52:00,77.0,44.1,29.88,North,3,6.3,8.7,31,0.00,,---,0.08,VWS V14.01,2013-09-26 19:52:00,
2013-09-26 15:56:00,76.6,44.6,29.88,NNW,337,5.4,5.4,32,0.00,,---,0.08,VWS V14.01,2013-09-26 19:56:00,
2013-09-26 15:57:00,76.6,44.6,29.88,NNW,337,5.4,5.4,32,0.00,,---,0.08,VWS V14.01,2013-09-26 19:57:00,
2013-09-26 16:01:00,76.5,44.4,29.88,ENE,67,2.7,2.7,32,0.00,,---,0.08,VWS V14.01,2013-09-26 20:01:00,
2013-09-26 16:02:00,76.5,44.4,29.88,NNW,348,2.2,2.7,32,0.00,,---,0.08,VWS V14.01,2013-09-26 20:02:00,
2013-09-26 16:06:00,76.3,44.3,29.88,NNW,346,5.4,5.4,32,0.00,,---,0.08,VWS V14.01,2013-09-26 20:06:00,
2013-09-26 16:07:00,76.1,44.1,29.88,North,3,11.0,12.3,32,0.00,,---,0.08,VWS V14.01,2013-09-26 20:07:00,
2013-09-26 16:11:00,76.1,44.1,29.88,North,357,0.0,0.0,32,0.00,,---,0.08,VWS V14.01,2013-09-26 20:11:00,
2013-09-26 16:12:00,76.1,44.1,29.88,North,357,0.0,0.0,32,0.00,,---,0.08,VWS V14.01,2013-09-26 20:12:00,
2013-09-26 16:13:00,76.1,44.1,29.88,North,1,4.0,4.0,32,0.00,,---,0.08,VWS V14.01,2013-09-26 20:13:00,
2013-09-26 16:16:00,76.1,44.1,29.88,NNW,343,4.0,4.0,32,0.00,,---,0.08,VWS V14.01,2013-09-26 20:16:00,
2013-09-26 16:17:00,76.1,44.1,29.88,NNW,343,4.0,4.0,32,0.00,,---,0.08,VWS V14.01,2013-09-26 20:17:00,
2013-09-26 16:18:00,76.1,44.1,29.88,NNE,13,4.0,4.0,32,0.00,,---,0.08,VWS V14.01,2013-09-26 20:18:00,
2013-09-26 16:21:00,75.9,44.0,29.88,NW,321,3.1,3.1,32,0.00,,---,0.08,VWS V14.01,2013-09-26 20:21:00,
2013-09-26 16:22:00,75.9,44.0,29.88,NW,321,3.1,3.1,32,0.00,,---,0.08,VWS V14.01,2013-09-26 20:22:00,
2013-09-26 16:23:00,75.9,44.0,29.88,NW,321,3.1,3.1,32,0.00,,---,0.08,VWS V14.01,2013-09-26 20:23:00,
2013-09-26 16:26:00,76.3,44.3,29.88,West,265,5.4,5.4,32,0.00,,---,0.08,VWS V14.01,2013-09-26 20:26:00,
2013-09-26 16:27:00,76.3,44.3,29.88,West,265,5.4,5.4,32,0.00,,---,0.08,VWS V14.01,2013-09-26 20:27:00,
2013-09-26 16:28:00,76.3,44.3,29.88,WNW,301,7.6,7.6,32,0.00,,---,0.08,VWS V14.01,2013-09-26 20:28:00,
2013-09-26 16:31:00,76.5,44.4,29.88,NNE,17,5.4,5.4,32,0.00,,---,0.08,VWS V14.01,2013-09-26 20:31:00,
2013-09-26 16:32:00,76.5,44.4,29.88,NNE,17,5.4,5.4,32,0.00,,---,0.08,VWS V14.01,2013-09-26 20:32:00,
2013-09-26 16:33:00,76.5,44.4,29.88,NW,307,8.1,8.1,32,0.00,,---,0.08,VWS V14.01,2013-09-26 20:33:00,
2013-09-26 16:36:00,76.8,44.8,29.88,West,268,5.8,8.1,32,0.00,,---,0.08,VWS V14.01,2013-09-26 20:36:00,
2013-09-26 16:37:00,76.8,44.8,29.88,West,268,5.8,8.1,32,0.00,,---,0.08,VWS V14.01,2013-09-26 20:37:00,
2013-09-26 16:38:00,77.0,44.1,29.88,NNW,337,5.4,5.8,31,0.00,,---,0.08,VWS V14.01,2013-09-26 20:38:00,
2013-09-26 16:41:00,77.2,44.2,29.91,West,265,5.4,5.4,31,0.00,,---,0.08,VWS V14.01,2013-09-26 20:41:00,
2013-09-26 16:42:00,77.2,44.2,29.91,West,265,5.4,5.4,31,0.00,,---,0.08,VWS V14.01,2013-09-26 20:42:00,
2013-09-26 16:43:00,77.2,44.2,29.91,North,357,4.0,5.4,31,0.00,,---,0.08,VWS V14.01,2013-09-26 20:43:00,
2013-09-26 16:47:00,77.4,44.4,29.91,North,357,7.6,7.6,31,0.00,,---,0.08,VWS V14.01,2013-09-26 20:47:00,
2013-09-26 16:48:00,77.2,44.2,29.91,North,357,5.4,5.4,31,0.00,,---,0.08,VWS V14.01,2013-09-26 20:48:00,
2013-09-26 16:52:00,77.0,44.1,29.91,NE,45,4.9,4.9,31,0.00,,---,0.08,VWS V14.01,2013-09-26 20:52:00,
2013-09-26 16:53:00,77.0,44.1,29.91,ENE,76,5.4,5.4,31,0.00,,---,0.08,VWS V14.01,2013-09-26 20:53:00,
2013-09-26 16:57:00,76.8,44.8,29.91,NNW,339,5.8,6.3,32,0.00,,---,0.08,VWS V14.01,2013-09-26 20:57:00,
2013-09-26 16:58:00,76.6,44.6,29.91,North,9,6.3,6.3,32,0.00,,---,0.08,VWS V14.01,2013-09-26 20:58:00,
2013-09-26 17:02:00,76.5,44.4,29.91,North,2,6.3,6.3,32,0.00,,---,0.08,VWS V14.01,2013-09-26 21:02:00,
2013-09-26 17:03:00,76.3,44.3,29.91,NNW,339,2.7,4.9,32,0.00,,---,0.08,VWS V14.01,2013-09-26 21:03:00,
2013-09-26 17:07:00,76.1,44.1,29.91,NNW,336,6.3,7.2,32,0.00,,---,0.08,VWS V14.01,2013-09-26 21:07:00,
2013-09-26 17:08:00,76.1,44.1,29.91,North,0,5.8,5.8,32,0.00,,---,0.08,VWS V14.01,2013-09-26 21:08:00,
2013-09-26 17:12:00,76.1,44.1,29.91,North,353,5.8,6.7,32,0.00,,---,0.08,VWS V14.01,2013-09-26 21:12:00,
2013-09-26 17:13:00,76.1,44.1,29.91,North,6,5.4,5.8,32,0.00,,---,0.08,VWS V14.01,2013-09-26 21:13:00,
2013-09-26 17:17:00,76.1,44.1,29.91,NNW,328,5.4,5.8,32,0.00,,---,0.08,VWS V14.01,2013-09-26 21:17:00,
2013-09-26 17:18:00,75.9,44.0,29.91,NW,318,3.6,6.3,32,0.00,,---,0.08,VWS V14.01,2013-09-26 21:18:00,
2013-09-26 17:22:00,75.9,44.0,29.91,NNW,340,4.0,4.0,32,0.00,,---,0.08,VWS V14.01,2013-09-26 21:22:00,
2013-09-26 17:23:00,75.9,44.0,29.91,East,80,2.7,2.7,32,0.00,,---,0.08,VWS V14.01,2013-09-26 21:23:00,
2013-09-26 17:27:00,75.6,43.7,29.91,North,353,5.4,5.4,32,0.00,,---,0.08,VWS V14.01,2013-09-26 21:27:00,
2013-09-26 17:28:00,75.6,43.7,29.91,NNW,344,8.1,8.1,32,0.00,,---,0.08,VWS V14.01,2013-09-26 21:28:00,
2013-09-26 17:32:00,75.4,43.5,29.91,North,353,6.3,6.3,32,0.00,,---,0.08,VWS V14.01,2013-09-26 21:32:00,
2013-09-26 17:33:00,75.4,43.5,29.91,North,357,3.1,6.3,32,0.00,,---,0.08,VWS V14.01,2013-09-26 21:33:00,
2013-09-26 17:37:00,75.2,43.3,29.91,NNE,14,5.4,5.4,32,0.00,,---,0.08,VWS V14.01,2013-09-26 21:37:00,
2013-09-26 17:38:00,75.2,43.3,29.91,North,353,5.8,5.8,32,0.00,,---,0.08,VWS V14.01,2013-09-26 21:38:00,
2013-09-26 17:39:00,75.2,43.3,29.91,North,10,10.1,10.1,32,0.00,,---,0.08,VWS V14.01,2013-09-26 21:39:00,
2013-09-26 17:42:00,75.0,43.2,29.91,NE,39,0.0,0.0,32,0.00,,---,0.08,VWS V14.01,2013-09-26 21:42:00,
2013-09-26 17:43:00,75.0,43.2,29.91,North,357,5.8,5.8,32,0.00,,---,0.08,VWS V14.01,2013-09-26 21:43:00,
2013-09-26 17:44:00,75.0,43.2,29.91,NNW,332,2.7,2.7,32,0.00,,---,0.08,VWS V14.01,2013-09-26 21:44:00,
2013-09-26 17:47:00,74.8,43.0,29.91,North,353,4.0,4.5,32,0.00,,---,0.08,VWS V14.01,2013-09-26 21:47:00,
2013-09-26 17:48:00,74.8,43.0,29.91,North,0,0.0,4.5,32,0.00,,---,0.08,VWS V14.01,2013-09-26 21:48:00,
2013-09-26 17:49:00,74.8,43.0,29.91,North,0,0.0,0.0,32,0.00,,---,0.08,VWS V14.01,2013-09-26 21:49:00,
2013-09-26 17:52:00,74.8,43.8,29.91,NNE,20,3.6,3.6,33,0.00,,---,0.08,VWS V14.01,2013-09-26 21:52:00,
2013-09-26 17:53:00,74.8,43.8,29.91,NNE,13,3.1,3.6,33,0.00,,---,0.08,VWS V14.01,2013-09-26 21:53:00,
2013-09-26 17:54:00,74.8,43.8,29.91,North,353,10.1,10.1,33,0.00,,---,0.08,VWS V14.01,2013-09-26 21:54:00,
2013-09-26 17:57:00,74.7,43.7,29.91,NW,325,3.6,3.6,33,0.00,,---,0.08,VWS V14.01,2013-09-26 21:57:00,
2013-09-26 17:58:00,74.7,43.7,29.91,NW,325,3.6,3.6,33,0.00,,---,0.08,VWS V14.01,2013-09-26 21:58:00,
2013-09-26 17:59:00,74.7,43.7,29.91,SSE,151,3.6,3.6,33,0.00,,---,0.08,VWS V14.01,2013-09-26 21:59:00,
2013-09-26 18:02:00,74.7,43.7,29.91,NNE,22,5.4,5.4,33,0.00,,---,0.08,VWS V14.01,2013-09-26 22:02:00,
2013-09-26 18:03:00,74.5,43.5,29.91,NW,317,3.1,3.1,33,0.00,,---,0.08,VWS V14.01,2013-09-26 22:03:00,
2013-09-26 18:04:00,74.5,43.5,29.91,North,7,2.7,4.0,33,0.00,,---,0.08,VWS V14.01,2013-09-26 22:04:00,
2013-09-26 18:07:00,74.5,43.5,29.91,NNE,17,4.0,5.8,33,0.00,,---,0.08,VWS V14.01,2013-09-26 22:07:00,
2013-09-26 18:08:00,74.5,43.5,29.91,East,95,4.9,4.9,33,0.00,,---,0.08,VWS V14.01,2013-09-26 22:08:00,
2013-09-26 18:09:00,74.3,43.4,29.91,WNW,289,3.6,3.6,33,0.00,,---,0.08,VWS V14.01,2013-09-26 22:09:00,
2013-09-26 18:12:00,74.3,43.4,29.91,North,353,3.1,3.1,33,0.00,,---,0.08,VWS V14.01,2013-09-26 22:12:00,
2013-09-26 18:13:00,74.3,43.4,29.91,ENE,64,0.0,0.0,33,0.00,,---,0.08,VWS V14.01,2013-09-26 22:13:00,
2013-09-26 18:14:00,74.3,43.4,29.91,NNE,31,8.3,8.3,33,0.00,,---,0.08,VWS V14.01,2013-09-26 22:14:00,
2013-09-26 18:17:00,74.1,43.2,29.91,North,353,3.6,3.6,33,0.00,,---,0.08,VWS V14.01,2013-09-26 22:17:00,
2013-09-26 18:18:00,74.1,43.2,29.91,NNW,348,4.0,4.0,33,0.00,,---,0.08,VWS V14.01,2013-09-26 22:18:00,
2013-09-26 18:20:00,73.9,43.0,29.91,NNW,344,3.1,3.1,33,0.00,,---,0.08,VWS V14.01,2013-09-26 22:20:00,
2013-09-26 18:22:00,73.8,42.9,29.91,NNW,342,4.0,4.0,33,0.00,,---,0.08,VWS V14.01,2013-09-26 22:22:00,
2013-09-26 18:23:00,73.8,42.9,29.91,North,3,7.6,7.6,33,0.00,,---,0.08,VWS V14.01,2013-09-26 22:23:00,
2013-09-26 18:25:00,73.8,42.9,29.91,West,280,0.0,4.9,33,0.00,,---,0.08,VWS V14.01,2013-09-26 22:25:00,
2013-09-26 18:27:00,73.6,42.7,29.91,NW,324,3.6,3.6,33,0.00,,---,0.08,VWS V14.01,2013-09-26 22:27:00,
2013-09-26 18:28:00,73.4,42.6,29.91,NNE,20,4.0,4.0,33,0.00,,---,0.08,VWS V14.01,2013-09-26 22:28:00,
2013-09-26 18:30:00,73.4,42.6,29.91,NE,45,4.0,5.4,33,0.00,,---,0.08,VWS V14.01,2013-09-26 22:30:00,
2013-09-26 18:32:00,73.2,43.2,29.91,NNW,348,4.0,4.0,34,0.00,,---,0.08,VWS V14.01,2013-09-26 22:32:00,
2013-09-26 18:33:00,73.0,43.0,29.91,NNW,340,5.4,5.4,34,0.00,,---,0.08,VWS V14.01,2013-09-26 22:33:00,
2013-09-26 18:35:00,73.0,43.0,29.91,North,9,5.4,5.4,34,0.00,,---,0.08,VWS V14.01,2013-09-26 22:35:00,
2013-09-26 18:37:00,72.9,42.9,29.91,North,357,3.6,4.9,34,0.00,,---,0.08,VWS V14.01,2013-09-26 22:37:00,
2013-09-26 18:38:00,72.9,42.9,29.91,North,10,4.0,4.0,34,0.00,,---,0.08,VWS V14.01,2013-09-26 22:38:00,
2013-09-26 18:40:00,72.9,42.9,29.94,ENE,61,3.6,4.0,34,0.00,,---,0.08,VWS V14.01,2013-09-26 22:40:00,
2013-09-26 18:42:00,72.7,42.7,29.94,North,1,2.7,2.7,34,0.00,,---,0.08,VWS V14.01,2013-09-26 22:42:00,
2013-09-26 18:43:00,72.5,42.6,29.94,NE,43,3.1,3.1,34,0.00,,---,0.08,VWS V14.01,2013-09-26 22:43:00,
2013-09-26 18:44:00,72.5,42.6,29.94,NE,43,3.1,3.1,34,0.00,,---,0.08,VWS V14.01,2013-09-26 22:44:00,
2013-09-26 18:45:00,72.3,42.4,29.94,North,2,3.6,5.4,34,0.00,,---,0.08,VWS V14.01,2013-09-26 22:45:00,
2013-09-26 18:47:00,72.3,42.4,29.94,NNE,20,0.0,0.0,34,0.00,,---,0.08,VWS V14.01,2013-09-26 22:47:00,
2013-09-26 18:48:00,72.3,42.4,29.94,NNE,20,0.0,0.0,34,0.00,,---,0.08,VWS V14.01,2013-09-26 22:48:00,
2013-09-26 18:49:00,72.1,42.2,29.94,NNW,340,0.0,0.0,34,0.00,,---,0.08,VWS V14.01,2013-09-26 22:49:00,
2013-09-26 18:51:00,72.1,42.2,29.94,NNW,333,0.0,0.0,34,0.00,,---,0.08,VWS V14.01,2013-09-26 22:51:00,
2013-09-26 18:52:00,72.1,42.2,29.94,NW,316,0.0,0.0,34,0.00,,---,0.08,VWS V14.01,2013-09-26 22:52:00,
2013-09-26 18:53:00,72.1,42.2,29.94,NNE,14,0.0,0.0,34,0.00,,---,0.08,VWS V14.01,2013-09-26 22:53:00,
2013-09-26 18:54:00,71.8,41.9,29.94,North,350,0.0,0.0,34,0.00,,---,0.08,VWS V14.01,2013-09-26 22:54:00,
2013-09-26 18:56:00,71.8,41.9,29.94,NNW,341,0.0,0.0,34,0.00,,---,0.08,VWS V14.01,2013-09-26 22:56:00,
2013-09-26 18:57:00,71.6,42.5,29.94,NNW,341,0.0,0.0,35,0.00,,---,0.08,VWS V14.01,2013-09-26 22:57:00,
2013-09-26 18:58:00,71.6,42.5,29.94,NNW,341,0.0,0.0,35,0.00,,---,0.08,VWS V14.01,2013-09-26 22:58:00,
2013-09-26 18:59:00,71.6,42.5,29.94,NNW,341,0.0,0.0,35,0.00,,---,0.08,VWS V14.01,2013-09-26 22:59:00,
2013-09-26 19:01:00,71.4,42.4,29.94,NNW,341,0.0,0.0,35,0.00,,---,0.08,VWS V14.01,2013-09-26 23:01:00,
2013-09-26 19:02:00,71.2,42.2,29.94,North,8,0.0,0.0,35,0.00,,---,0.08,VWS V14.01,2013-09-26 23:02:00,
2013-09-26 19:03:00,71.2,42.2,29.94,North,8,0.0,0.0,35,0.00,,---,0.08,VWS V14.01,2013-09-26 23:03:00,
2013-09-26 19:05:00,71.2,42.2,29.94,WNW,291,0.0,0.0,35,0.00,,---,0.08,VWS V14.01,2013-09-26 23:05:00,
2013-09-26 19:06:00,71.2,42.2,29.94,WNW,291,0.0,0.0,35,0.00,,---,0.08,VWS V14.01,2013-09-26 23:06:00,
2013-09-26 19:07:00,71.1,42.8,29.94,WNW,291,0.0,0.0,36,0.00,,---,0.08,VWS V14.01,2013-09-26 23:07:00,
2013-09-26 19:08:00,70.9,42.6,29.94,WNW,291,0.0,0.0,36,0.00,,---,0.08,VWS V14.01,2013-09-26 23:08:00,
2013-09-26 19:10:00,70.9,42.6,29.94,NW,310,0.0,0.0,36,0.00,,---,0.08,VWS V14.01,2013-09-26 23:10:00,
2013-09-26 19:11:00,70.9,42.6,29.94,NW,310,0.0,0.0,36,0.00,,---,0.08,VWS V14.01,2013-09-26 23:11:00,
2013-09-26 19:12:00,70.9,42.6,29.94,NW,306,0.0,0.0,36,0.00,,---,0.08,VWS V14.01,2013-09-26 23:12:00,
2013-09-26 19:13:00,70.7,43.2,29.94,NW,306,0.0,0.0,37,0.00,,---,0.08,VWS V14.01,2013-09-26 23:13:00,
2013-09-26 19:15:00,70.5,43.0,29.94,NNW,342,0.0,0.0,37,0.00,,---,0.08,VWS V14.01,2013-09-26 23:15:00,
2013-09-26 19:16:00,70.5,43.0,29.94,NNW,344,0.0,0.0,37,0.00,,---,0.08,VWS V14.01,2013-09-26 23:16:00,
2013-09-26 19:17:00,70.3,42.9,29.94,NNW,344,0.0,0.0,37,0.00,,---,0.08,VWS V14.01,2013-09-26 23:17:00,
2013-09-26 19:18:00,70.3,42.9,29.94,North,5,0.0,2.7,37,0.00,,---,0.08,VWS V14.01,2013-09-26 23:18:00,
2013-09-26 19:20:00,70.0,42.5,29.94,North,1,0.0,0.0,37,0.00,,---,0.08,VWS V14.01,2013-09-26 23:20:00,
2013-09-26 19:21:00,70.0,42.5,29.94,North,1,0.0,0.0,37,0.00,,---,0.08,VWS V14.01,2013-09-26 23:21:00,
2013-09-26 19:22:00,69.8,42.4,29.94,North,1,0.0,0.0,37,0.00,,---,0.08,VWS V14.01,2013-09-26 23:22:00,
2013-09-26 19:24:00,69.6,42.2,29.94,North,1,0.0,0.0,37,0.00,,---,0.08,VWS V14.01,2013-09-26 23:24:00,
2013-09-26 19:25:00,69.6,42.2,29.94,North,1,0.0,0.0,37,0.00,,---,0.08,VWS V14.01,2013-09-26 23:25:00,
2013-09-26 19:26:00,69.4,42.1,29.94,North,1,0.0,0.0,37,0.00,,---,0.08,VWS V14.01,2013-09-26 23:26:00,
2013-09-26 19:27:00,69.3,41.9,29.94,North,1,0.0,0.0,37,0.00,,---,0.08,VWS V14.01,2013-09-26 23:27:00,
2013-09-26 19:29:00,69.1,42.4,29.94,North,1,0.0,0.0,38,0.00,,---,0.08,VWS V14.01,2013-09-26 23:29:00,
2013-09-26 19:30:00,69.1,42.4,29.94,North,1,0.0,0.0,38,0.00,,---,0.08,VWS V14.01,2013-09-26 23:30:00,
2013-09-26 19:31:00,69.1,42.4,29.94,North,1,0.0,0.0,38,0.00,,---,0.08,VWS V14.01,2013-09-26 23:31:00,
2013-09-26 19:32:00,68.9,42.3,29.94,North,1,0.0,0.0,38,0.00,,---,0.08,VWS V14.01,2013-09-26 23:32:00,
2013-09-26 19:34:00,68.9,42.3,29.94,North,1,0.0,0.0,38,0.00,,---,0.08,VWS V14.01,2013-09-26 23:34:00,
2013-09-26 19:35:00,68.7,42.1,29.94,North,1,0.0,0.0,38,0.00,,---,0.08,VWS V14.01,2013-09-26 23:35:00,
2013-09-26 19:37:00,68.7,42.1,29.94,North,1,0.0,0.0,38,0.00,,---,0.08,VWS V14.01,2013-09-26 23:37:00,
2013-09-26 19:39:00,68.5,42.0,29.94,North,1,0.0,0.0,38,0.00,,---,0.08,VWS V14.01,2013-09-26 23:39:00,
2013-09-26 19:40:00,68.5,42.0,29.94,North,1,0.0,0.0,38,0.00,,---,0.08,VWS V14.01,2013-09-26 23:40:00,
2013-09-26 19:42:00,68.2,41.6,29.94,North,1,0.0,0.0,38,0.00,,---,0.08,VWS V14.01,2013-09-26 23:42:00,
2013-09-26 19:44:00,68.2,42.3,29.94,NNW,327,0.0,0.0,39,0.00,,---,0.08,VWS V14.01,2013-09-26 23:44:00,
2013-09-26 19:45:00,68.2,42.3,29.94,NW,325,0.0,0.0,39,0.00,,---,0.08,VWS V14.01,2013-09-26 23:45:00,
2013-09-26 19:47:00,67.8,42.0,29.94,NW,325,0.0,0.0,39,0.00,,---,0.08,VWS V14.01,2013-09-26 23:47:00,
2013-09-26 19:49:00,67.5,42.3,29.94,NNW,341,0.0,0.0,40,0.00,,---,0.08,VWS V14.01,2013-09-26 23:49:00,
2013-09-26 19:50:00,67.5,42.3,29.94,North,353,0.0,0.0,40,0.00,,---,0.08,VWS V14.01,2013-09-26 23:50:00,
2013-09-26 19:52:00,67.3,42.8,29.94,North,353,0.0,0.0,41,0.00,,---,0.08,VWS V14.01,2013-09-26 23:52:00,
2013-09-26 19:54:00,67.3,43.4,29.94,North,353,0.0,0.0,42,0.00,,---,0.08,VWS V14.01,2013-09-26 23:54:00,
2013-09-26 19:55:00,67.1,43.3,29.94,North,353,0.0,0.0,42,0.00,,---,0.08,VWS V14.01,2013-09-26 23:55:00,
2013-09-26 19:57:00,67.1,43.3,29.94,NNE,13,0.0,0.0,42,0.00,,---,0.08,VWS V14.01,2013-09-26 23:57:00,
2013-09-26 19:59:00,67.1,43.3,29.94,NNW,336,2.7,3.1,42,0.00,,---,0.08,VWS V14.01,2013-09-26 23:59:00,
2013-09-26 20:00:00,67.1,43.3,29.94,NNW,336,2.7,2.7,42,0.00,,---,0.08,VWS V14.01,2013-09-27 00:00:00,
2013-09-26 20:02:00,66.9,43.7,29.94,NW,320,0.0,0.0,43,0.00,,---,0.08,VWS V14.01,2013-09-27 00:02:00,
2013-09-26 20:04:00,66.9,43.7,29.97,WNW,293,0.0,0.0,43,0.00,,---,0.08,VWS V14.01,2013-09-27 00:04:00,
2013-09-26 20:06:00,66.9,43.7,29.97,WNW,293,0.0,0.0,43,0.00,,---,0.08,VWS V14.01,2013-09-27 00:06:00,
2013-09-26 20:10:00,66.7,43.5,29.97,North,8,0.0,0.0,43,0.00,,---,0.08,VWS V14.01,2013-09-27 00:10:00,
2013-09-26 20:11:00,66.7,43.5,29.97,North,8,0.0,0.0,43,0.00,,---,0.08,VWS V14.01,2013-09-27 00:11:00,
2013-09-26 20:15:00,66.6,43.4,29.97,NW,325,0.0,0.0,43,0.00,,---,0.08,VWS V14.01,2013-09-27 00:15:00,
2013-09-26 20:16:00,66.6,43.4,29.97,NW,325,0.0,0.0,43,0.00,,---,0.00,VWS V14.01,2013-09-27 00:16:00,
2013-09-26 20:20:00,66.6,43.4,29.97,NNW,336,3.1,3.1,43,0.00,,---,0.08,VWS V14.01,2013-09-27 00:20:00,
2013-09-26 20:21:00,66.6,43.4,29.97,NNW,336,3.1,3.1,43,0.00,,---,0.08,VWS V14.01,2013-09-27 00:21:00,
2013-09-26 20:25:00,66.4,43.8,29.97,NNW,327,2.2,2.2,44,0.00,,---,0.08,VWS V14.01,2013-09-27 00:25:00,
2013-09-26 20:26:00,66.4,43.8,29.97,North,0,2.7,2.7,44,0.00,,---,0.08,VWS V14.01,2013-09-27 00:26:00,
2013-09-26 20:30:00,66.2,43.7,29.97,NE,47,2.7,2.7,44,0.00,,---,0.08,VWS V14.01,2013-09-27 00:30:00,
2013-09-26 20:31:00,66.2,43.7,29.97,North,357,2.7,2.7,44,0.00,,---,0.08,VWS V14.01,2013-09-27 00:31:00,
2013-09-26 20:35:00,66.2,43.7,29.97,NNE,26,3.6,4.0,44,0.00,,---,0.08,VWS V14.01,2013-09-27 00:35:00,
2013-09-26 20:36:00,66.2,43.7,29.97,North,353,2.7,5.4,44,0.00,,---,0.08,VWS V14.01,2013-09-27 00:36:00,
2013-09-26 20:40:00,66.2,43.7,29.97,North,0,0.0,0.0,44,0.00,,---,0.08,VWS V14.01,2013-09-27 00:40:00,
2013-09-26 20:41:00,66.0,43.5,29.97,North,0,0.0,0.0,44,0.00,,---,0.08,VWS V14.01,2013-09-27 00:41:00,
2013-09-26 20:45:00,66.0,44.1,29.97,NNW,338,3.1,4.9,45,0.00,,---,0.08,VWS V14.01,2013-09-27 00:45:00,
2013-09-26 20:46:00,66.0,43.5,29.97,NNE,28,4.9,4.9,44,0.00,,---,0.08,VWS V14.01,2013-09-27 00:46:00,
2013-09-26 20:50:00,66.0,44.1,29.97,ENE,60,0.0,0.0,45,0.00,,---,0.08,VWS V14.01,2013-09-27 00:50:00,
2013-09-26 20:51:00,66.0,44.1,29.97,NNW,340,5.4,5.4,45,0.00,,---,0.08,VWS V14.01,2013-09-27 00:51:00,
2013-09-26 20:55:00,66.2,43.7,29.97,NNE,32,3.1,5.4,44,0.00,,---,0.08,VWS V14.01,2013-09-27 00:55:00,
2013-09-26 20:56:00,66.2,43.7,29.97,North,350,0.0,0.0,44,0.00,,---,0.08,VWS V14.01,2013-09-27 00:56:00,
2013-09-26 21:00:00,66.4,43.2,29.97,NNW,340,2.2,2.2,43,0.00,,---,0.08,VWS V14.01,2013-09-27 01:00:00,
2013-09-26 21:01:00,66.4,43.2,29.97,NE,49,4.0,5.4,43,0.00,,---,0.08,VWS V14.01,2013-09-27 01:01:00,
2013-09-26 21:02:00,66.4,43.2,29.97,NE,49,4.0,5.4,43,0.00,,---,0.08,VWS V14.01,2013-09-27 01:02:00,
2013-09-26 21:05:00,66.6,43.4,29.97,NNE,17,3.6,3.6,43,0.00,,---,0.08,VWS V14.01,2013-09-27 01:05:00,
2013-09-26 21:06:00,66.6,43.4,29.97,NNE,17,3.6,3.6,43,0.00,,---,0.08,VWS V14.01,2013-09-27 01:06:00,
2013-09-26 21:07:00,66.6,43.4,29.97,NNE,12,3.1,3.1,43,0.00,,---,0.08,VWS V14.01,2013-09-27 01:07:00,
2013-09-26 21:10:00,66.6,43.4,29.97,North,353,2.7,2.7,43,0.00,,---,0.08,VWS V14.01,2013-09-27 01:10:00,
2013-09-26 21:11:00,66.6,43.4,29.97,North,353,2.7,2.7,43,0.00,,---,0.08,VWS V14.01,2013-09-27 01:11:00,
2013-09-26 21:12:00,66.6,43.4,29.97,North,2,3.1,3.1,43,0.00,,---,0.08,VWS V14.01,2013-09-27 01:12:00,
2013-09-26 21:15:00,66.6,43.4,29.97,NNW,341,4.0,4.0,43,0.00,,---,0.08,VWS V14.01,2013-09-27 01:15:00,
2013-09-26 21:16:00,66.6,43.4,29.97,NNW,342,5.4,5.4,43,0.00,,---,0.08,VWS V14.01,2013-09-27 01:16:00,
2013-09-26 21:17:00,66.6,43.4,29.97,North,353,2.2,5.4,43,0.00,,---,0.08,VWS V14.01,2013-09-27 01:17:00,
2013-09-26 21:20:00,66.4,43.2,29.97,NNW,329,3.6,3.6,43,0.00,,---,0.08,VWS V14.01,2013-09-27 01:20:00,
2013-09-26 21:21:00,66.4,43.2,29.97,North,8,2.7,3.6,43,0.00,,---,0.08,VWS V14.01,2013-09-27 01:21:00,
2013-09-26 21:22:00,66.4,43.2,29.97,North,353,3.6,3.6,43,0.00,,---,0.08,VWS V14.01,2013-09-27 01:22:00,
2013-09-26 21:25:00,66.2,43.1,29.97,NNE,29,2.7,2.7,43,0.00,,---,0.08,VWS V14.01,2013-09-27 01:25:00,
2013-09-26 21:26:00,66.2,43.1,29.97,NW,323,2.7,2.7,43,0.00,,---,0.08,VWS V14.01,2013-09-27 01:26:00,
2013-09-26 21:27:00,66.2,43.1,29.97,NW,323,2.7,2.7,43,0.00,,---,0.08,VWS V14.01,2013-09-27 01:27:00,
2013-09-26 21:30:00,66.0,42.9,29.97,North,5,4.9,4.9,43,0.00,,---,0.08,VWS V14.01,2013-09-27 01:30:00,
2013-09-26 21:31:00,66.0,42.9,29.97,NNW,336,3.6,4.9,43,0.00,,---,0.08,VWS V14.01,2013-09-27 01:31:00,
2013-09-26 21:32:00,66.0,42.9,29.97,North,1,2.7,2.7,43,0.00,,---,0.08,VWS V14.01,2013-09-27 01:32:00,
2013-09-26 21:35:00,66.0,42.9,29.97,North,7,0.0,3.1,43,0.00,,---,0.08,VWS V14.01,2013-09-27 01:35:00,
2013-09-26 21:36:00,66.0,42.9,29.97,NW,325,3.1,3.1,43,0.00,,---,0.08,VWS V14.01,2013-09-27 01:36:00,
2013-09-26 21:37:00,66.0,42.9,29.97,NE,54,3.1,3.1,43,0.00,,---,0.08,VWS V14.01,2013-09-27 01:37:00,
2013-09-26 21:40:00,65.8,43.3,29.97,NNW,334,4.0,4.0,44,0.00,,---,0.08,VWS V14.01,2013-09-27 01:40:00,
2013-09-26 21:41:00,65.8,43.3,29.97,NNW,334,4.0,4.0,44,0.00,,---,0.08,VWS V14.01,2013-09-27 01:41:00,
2013-09-26 21:42:00,65.7,43.2,29.97,North,353,4.0,4.0,44,0.00,,---,0.08,VWS V14.01,2013-09-27 01:42:00,
2013-09-26 21:45:00,65.7,43.2,29.97,North,357,4.0,4.0,44,0.00,,---,0.08,VWS V14.01,2013-09-27 01:45:00,
2013-09-26 21:46:00,65.7,43.2,29.97,North,357,4.0,4.0,44,0.00,,---,0.08,VWS V14.01,2013-09-27 01:46:00,
2013-09-26 21:47:00,65.7,43.2,29.97,NW,321,0.0,0.0,44,0.00,,---,0.08,VWS V14.01,2013-09-27 01:47:00,
2013-09-26 21:50:00,65.5,43.0,29.97,NNW,338,3.6,3.6,44,0.00,,---,0.08,VWS V14.01,2013-09-27 01:50:00,
2013-09-26 21:51:00,65.5,43.0,29.97,NNE,17,2.7,2.7,44,0.00,,---,0.08,VWS V14.01,2013-09-27 01:51:00,
2013-09-26 21:52:00,65.5,43.0,29.97,North,0,3.6,3.6,44,0.00,,---,0.08,VWS V14.01,2013-09-27 01:52:00,
2013-09-26 21:55:00,65.1,42.7,30.00,West,269,0.0,3.6,44,0.00,,---,0.08,VWS V14.01,2013-09-27 01:55:00,
2013-09-26 21:56:00,65.1,42.7,30.00,West,269,0.0,0.0,44,0.00,,---,0.08,VWS V14.01,2013-09-27 01:56:00,
2013-09-26 21:57:00,64.9,42.5,30.00,NW,317,0.0,2.2,44,0.00,,---,0.08,VWS V14.01,2013-09-27 01:57:00,
2013-09-26 22:00:00,64.8,42.4,30.00,NNW,333,2.7,3.6,44,0.00,,---,0.08,VWS V14.01,2013-09-27 02:00:00,
2013-09-26 22:01:00,64.8,42.4,30.00,North,0,3.1,3.1,44,0.00,,---,0.08,VWS V14.01,2013-09-27 02:01:00,
2013-09-26 22:02:00,64.8,42.4,30.00,NW,324,2.7,2.7,44,0.00,,---,0.08,VWS V14.01,2013-09-27 02:02:00,
2013-09-26 22:03:00,64.8,42.4,30.00,NW,325,2.7,2.7,44,0.00,,---,0.08,VWS V14.01,2013-09-27 02:03:00,
2013-09-26 22:05:00,64.6,42.8,30.00,NNW,344,0.0,0.0,45,0.00,,---,0.08,VWS V14.01,2013-09-27 02:05:00,
2013-09-26 22:06:00,64.6,42.8,30.00,NNW,344,0.0,0.0,45,0.00,,---,0.08,VWS V14.01,2013-09-27 02:06:00,
2013-09-26 22:07:00,64.6,42.8,30.00,West,277,0.0,0.0,45,0.00,,---,0.08,VWS V14.01,2013-09-27 02:07:00,
2013-09-26 22:08:00,64.6,42.8,30.00,NNW,334,2.7,2.7,45,0.00,,---,0.08,VWS V14.01,2013-09-27 02:08:00,
2013-09-26 22:10:00,64.4,42.6,30.00,North,0,4.0,4.0,45,0.00,,---,0.08,VWS V14.01,2013-09-27 02:10:00,
2013-09-26 22:11:00,64.2,42.5,30.00,NW,311,3.1,4.0,45,0.00,,---,0.08,VWS V14.01,2013-09-27 02:11:00,
2013-09-26 22:12:00,64.2,42.5,30.00,NNW,331,0.0,4.9,45,0.00,,---,0.08,VWS V14.01,2013-09-27 02:12:00,
2013-09-26 22:13:00,64.2,42.5,30.00,NW,324,0.0,4.9,45,0.00,,---,0.08,VWS V14.01,2013-09-27 02:13:00,
2013-09-26 22:15:00,64.2,43.0,30.00,North,2,4.5,4.5,46,0.00,,---,0.08,VWS V14.01,2013-09-27 02:15:00,
2013-09-26 22:16:00,64.2,43.0,30.00,North,2,4.5,4.5,46,0.00,,---,0.08,VWS V14.01,2013-09-27 02:16:00,
2013-09-26 22:18:00,64.2,43.0,30.00,WNW,298,0.0,4.5,46,0.00,,---,0.08,VWS V14.01,2013-09-27 02:18:00,
2013-09-26 22:21:00,64.2,43.0,30.00,NNW,331,4.9,4.9,46,0.00,,---,0.08,VWS V14.01,2013-09-27 02:21:00,
2013-09-26 22:23:00,64.2,43.0,30.00,West,275,0.0,2.7,46,0.00,,---,0.08,VWS V14.01,2013-09-27 02:23:00,
2013-09-26 22:26:00,64.2,43.0,30.00,NNW,344,3.1,3.1,46,0.00,,---,0.08,VWS V14.01,2013-09-27 02:26:00,
2013-09-26 22:28:00,64.2,43.0,30.00,North,4,3.1,3.1,46,0.00,,---,0.08,VWS V14.01,2013-09-27 02:28:00,
2013-09-26 22:31:00,63.7,43.1,30.00,North,10,4.0,4.0,47,0.00,,---,0.08,VWS V14.01,2013-09-27 02:31:00,
2013-09-26 22:33:00,63.5,42.9,30.00,NW,322,3.6,3.6,47,0.00,,---,0.08,VWS V14.01,2013-09-27 02:33:00,
2013-09-26 22:36:00,63.5,42.9,30.00,North,353,0.0,0.0,47,0.00,,---,0.08,VWS V14.01,2013-09-27 02:36:00,
2013-09-26 22:38:00,63.5,42.9,30.00,NW,314,0.0,0.0,47,0.00,,---,0.08,VWS V14.01,2013-09-27 02:38:00,
2013-09-26 22:41:00,63.3,43.3,30.00,WSW,251,0.0,0.0,48,0.00,,---,0.08,VWS V14.01,2013-09-27 02:41:00,
2013-09-26 22:43:00,63.3,43.3,30.00,North,0,0.0,2.2,48,0.00,,---,0.08,VWS V14.01,2013-09-27 02:43:00,
2013-09-26 22:46:00,63.3,43.3,30.00,NW,324,2.7,3.1,48,0.00,,---,0.08,VWS V14.01,2013-09-27 02:46:00,
2013-09-26 22:47:00,63.3,43.3,30.00,NW,324,2.7,2.7,48,0.00,,---,0.08,VWS V14.01,2013-09-27 02:47:00,
2013-09-26 22:48:00,63.1,43.7,30.00,North,2,3.1,3.1,49,0.00,,---,0.08,VWS V14.01,2013-09-27 02:48:00,
2013-09-26 22:51:00,63.1,43.7,30.00,West,264,3.1,3.1,49,0.00,,---,0.08,VWS V14.01,2013-09-27 02:51:00,
2013-09-26 22:52:00,63.1,43.7,30.00,West,264,3.1,3.1,49,0.00,,---,0.08,VWS V14.01,2013-09-27 02:52:00,
2013-09-26 22:53:00,63.1,43.7,30.00,WNW,282,0.0,0.0,49,0.00,,---,0.08,VWS V14.01,2013-09-27 02:53:00,
2013-09-26 22:56:00,63.1,43.7,30.00,NNW,340,2.7,4.0,49,0.00,,---,0.08,VWS V14.01,2013-09-27 02:56:00,
2013-09-26 22:57:00,63.1,44.2,30.00,WNW,299,2.2,2.7,50,0.00,,---,0.08,VWS V14.01,2013-09-27 02:57:00,
2013-09-26 22:58:00,63.1,44.2,30.00,North,353,3.1,3.1,50,0.00,,---,0.08,VWS V14.01,2013-09-27 02:58:00,
2013-09-26 23:01:00,63.1,44.2,30.00,West,268,3.1,4.9,50,0.00,,---,0.08,VWS V14.01,2013-09-27 03:01:00,
2013-09-26 23:02:00,63.1,44.2,30.00,WNW,293,2.7,4.9,50,0.00,,---,0.08,VWS V14.01,2013-09-27 03:02:00,
2013-09-26 23:03:00,63.1,44.2,30.00,WNW,286,2.7,4.9,50,0.00,,---,0.08,VWS V14.01,2013-09-27 03:03:00,
2013-09-26 23:06:00,63.0,44.0,30.00,North,0,2.2,2.7,50,0.00,,---,0.08,VWS V14.01,2013-09-27 03:06:00,
2013-09-26 23:07:00,63.0,44.0,30.00,North,0,3.6,3.6,50,0.00,,---,0.08,VWS V14.01,2013-09-27 03:07:00,
2013-09-26 23:08:00,63.0,44.0,30.00,NNW,343,2.2,2.2,50,0.00,,---,0.08,VWS V14.01,2013-09-27 03:08:00,
2013-09-26 23:09:00,63.0,44.0,30.00,NNW,343,2.2,2.2,50,0.00,,---,0.08,VWS V14.01,2013-09-27 03:09:00,
2013-09-26 23:11:00,63.0,44.0,30.00,NNW,327,0.0,0.0,50,0.00,,---,0.08,VWS V14.01,2013-09-27 03:11:00,
2013-09-26 23:12:00,63.0,44.6,30.00,NNW,336,0.0,0.0,51,0.00,,---,0.08,VWS V14.01,2013-09-27 03:12:00,
2013-09-26 23:13:00,63.0,44.6,30.00,NW,317,2.7,2.7,51,0.00,,---,0.08,VWS V14.01,2013-09-27 03:13:00,
2013-09-26 23:14:00,63.0,44.6,30.00,North,349,0.0,2.7,51,0.00,,---,0.08,VWS V14.01,2013-09-27 03:14:00,
2013-09-26 23:16:00,63.0,44.6,30.00,NW,319,3.6,3.6,51,0.00,,---,0.08,VWS V14.01,2013-09-27 03:16:00,
2013-09-26 23:17:00,63.0,44.6,30.00,NNW,330,3.1,3.6,51,0.00,,---,0.08,VWS V14.01,2013-09-27 03:17:00,
2013-09-26 23:18:00,63.0,44.6,30.00,North,353,3.6,3.6,51,0.00,,---,0.08,VWS V14.01,2013-09-27 03:18:00,
2013-09-26 23:19:00,63.0,45.1,30.00,North,357,3.6,3.6,52,0.00,,---,0.08,VWS V14.01,2013-09-27 03:19:00,
2013-09-26 23:21:00,63.0,45.1,30.00,North,349,3.6,4.0,52,0.00,,---,0.08,VWS V14.01,2013-09-27 03:21:00,
2013-09-26 23:22:00,63.0,45.1,30.00,NW,315,4.0,4.0,52,0.00,,---,0.08,VWS V14.01,2013-09-27 03:22:00,
2013-09-26 23:23:00,63.0,45.1,29.97,NW,313,2.7,3.1,52,0.00,,---,0.08,VWS V14.01,2013-09-27 03:23:00,
2013-09-26 23:24:00,63.0,45.1,29.97,NW,318,3.6,3.6,52,0.00,,---,0.08,VWS V14.01,2013-09-27 03:24:00,
2013-09-26 23:26:00,63.0,45.1,29.97,North,353,5.4,5.4,52,0.00,,---,0.08,VWS V14.01,2013-09-27 03:26:00,
2013-09-26 23:27:00,63.0,45.1,29.97,NW,318,4.0,4.0,52,0.00,,---,0.08,VWS V14.01,2013-09-27 03:27:00,
2013-09-26 23:28:00,63.0,45.1,29.97,NW,318,4.0,4.0,52,0.00,,---,0.08,VWS V14.01,2013-09-27 03:28:00,
2013-09-26 23:29:00,63.0,45.1,29.97,North,357,5.8,5.8,52,0.00,,---,0.08,VWS V14.01,2013-09-27 03:29:00,
2013-09-26 23:31:00,62.8,44.9,29.97,NW,310,3.1,3.6,52,0.00,,---,0.08,VWS V14.01,2013-09-27 03:31:00,
2013-09-26 23:32:00,62.8,44.9,29.97,NW,310,3.1,3.1,52,0.00,,---,0.08,VWS V14.01,2013-09-27 03:32:00,
2013-09-26 23:33:00,62.8,44.9,29.97,NNW,331,3.1,3.1,52,0.00,,---,0.08,VWS V14.01,2013-09-27 03:33:00,
2013-09-26 23:34:00,62.8,44.9,29.97,NNW,331,3.1,3.1,52,0.00,,---,0.08,VWS V14.01,2013-09-27 03:34:00,
2013-09-26 23:36:00,62.8,44.9,29.97,North,353,5.4,5.4,52,0.00,,---,0.08,VWS V14.01,2013-09-27 03:36:00,
2013-09-26 23:37:00,62.8,45.4,29.97,WNW,292,3.6,3.6,53,0.00,,---,0.08,VWS V14.01,2013-09-27 03:37:00,
2013-09-26 23:38:00,62.8,45.4,30.00,NNW,336,5.8,5.8,53,0.00,,---,0.08,VWS V14.01,2013-09-27 03:38:00,
2013-09-26 23:39:00,62.8,45.4,30.00,NNW,344,2.7,2.7,53,0.00,,---,0.08,VWS V14.01,2013-09-27 03:39:00,
2013-09-26 23:41:00,62.8,45.9,30.00,NW,307,4.9,4.9,54,0.00,,---,0.08,VWS V14.01,2013-09-27 03:41:00,
2013-09-26 23:42:00,62.8,45.9,30.00,NNW,337,3.6,3.6,54,0.00,,---,0.08,VWS V14.01,2013-09-27 03:42:00,
2013-09-26 23:43:00,62.8,45.9,30.00,NW,314,3.6,3.6,54,0.00,,---,0.08,VWS V14.01,2013-09-27 03:43:00,
2013-09-26 23:44:00,62.8,45.9,30.00,NNW,334,0.0,0.0,54,0.00,,---,0.08,VWS V14.01,2013-09-27 03:44:00,
2013-09-26 23:46:00,62.8,45.9,30.00,WNW,295,5.4,5.4,54,0.00,,---,0.00,VWS V14.01,2013-09-27 03:46:00,
2013-09-26 23:47:00,62.8,45.9,30.00,NW,320,3.6,3.6,54,0.00,,---,0.08,VWS V14.01,2013-09-27 03:47:00,
2013-09-26 23:48:00,62.8,46.4,30.00,NW,320,4.0,4.0,55,0.00,,---,0.08,VWS V14.01,2013-09-27 03:48:00,
2013-09-26 23:49:00,62.8,46.4,30.00,North,0,5.4,5.4,55,0.00,,---,0.08,VWS V14.01,2013-09-27 03:49:00,
2013-09-26 23:51:00,62.8,46.4,30.00,NW,317,3.1,3.1,55,0.00,,---,0.08,VWS V14.01,2013-09-27 03:51:00,
2013-09-26 23:52:00,62.8,46.4,30.00,NNW,341,4.0,4.0,55,0.00,,---,0.08,VWS V14.01,2013-09-27 03:52:00,
2013-09-26 23:53:00,62.8,46.4,30.00,NNW,341,4.0,4.0,55,0.00,,---,0.08,VWS V14.01,2013-09-27 03:53:00,
2013-09-26 23:54:00,62.8,46.4,30.00,WNW,297,2.7,4.0,55,0.00,,---,0.08,VWS V14.01,2013-09-27 03:54:00,
2013-09-26 23:56:00,62.8,46.9,30.00,WNW,295,5.4,5.4,56,0.00,,---,0.08,VWS V14.01,2013-09-27 03:56:00,
2013-09-26 23:57:00,62.8,46.9,30.00,WNW,283,2.2,2.2,56,0.00,,---,0.08,VWS V14.01,2013-09-27 03:57:00,
2013-09-26 23:58:00,62.8,46.9,30.00,North,7,3.1,3.1,56,0.00,,---,0.08,VWS V14.01,2013-09-27 03:58:00,
2013-09-26 23:59:00,62.8,46.9,30.00,North,7,3.1,3.1,56,0.00,,---,0.08,VWS V14.01,2013-09-27 03:59:00,